2016 Cux-Wetter.de -Die Nutzung der Wetterdaten nur mit ausdrcklicher Genehmigung
Wetterdaten: Donnerstag, 18.08.2016
Datum Zeit Temp. A. Feuchte A. Luftdruck Regen Wind Richtung Richtung Sonnenschein Solar Taupunkt Windchill Windben
18.08.2016 00:00 14,9 C 92 % 1012,8 hPa 0,0 l/m 2,3 km/h (1 Bft) N 9 0 min 0 W/m 13,6 C 14,9 C 4,8 km/h (1 Bft)
18.08.2016 00:03 14,8 C 92 % 1012,8 hPa 0,0 l/m 2,0 km/h (1 Bft) NO 51 0 min 0 W/m 13,5 C 14,8 C 6,4 km/h (2 Bft)
18.08.2016 00:06 14,8 C 92 % 1012,8 hPa 0,0 l/m 2,6 km/h (1 Bft) N-NO 14 0 min 0 W/m 13,5 C 14,8 C 6,4 km/h (2 Bft)
18.08.2016 00:09 14,8 C 92 % 1012,7 hPa 0,0 l/m 1,6 km/h (1 Bft) N 360 0 min 0 W/m 13,5 C 14,8 C 4,8 km/h (1 Bft)
18.08.2016 00:12 14,8 C 92 % 1012,7 hPa 0,0 l/m 2,3 km/h (1 Bft) N 360 0 min 0 W/m 13,5 C 14,8 C 6,4 km/h (2 Bft)
18.08.2016 00:15 14,7 C 92 % 1012,7 hPa 0,0 l/m 1,0 km/h (0 Bft) N 360 0 min 0 W/m 13,4 C 14,7 C 1,6 km/h (1 Bft)
18.08.2016 00:18 14,7 C 92 % 1012,6 hPa 0,0 l/m 1,8 km/h (1 Bft) N-NW 331 0 min 0 W/m 13,4 C 14,7 C 8,0 km/h (2 Bft)
18.08.2016 00:21 14,6 C 92 % 1012,7 hPa 0,0 l/m 1,6 km/h (1 Bft) NW 323 0 min 0 W/m 13,3 C 14,6 C 3,2 km/h (1 Bft)
18.08.2016 00:24 14,5 C 93 % 1012,6 hPa 0,0 l/m 0,7 km/h (0 Bft) NW 323 0 min 0 W/m 13,4 C 14,5 C 3,2 km/h (1 Bft)
18.08.2016 00:27 14,4 C 93 % 1012,6 hPa 0,0 l/m 0,6 km/h (0 Bft) NW 323 0 min 0 W/m 13,3 C 14,4 C 1,6 km/h (1 Bft)
18.08.2016 00:30 14,4 C 93 % 1012,6 hPa 0,0 l/m 0,9 km/h (0 Bft) NW 323 0 min 0 W/m 13,3 C 14,4 C 1,6 km/h (1 Bft)
18.08.2016 00:33 14,3 C 93 % 1012,6 hPa 0,0 l/m 1,3 km/h (1 Bft) NW 323 0 min 0 W/m 13,2 C 14,3 C 4,8 km/h (1 Bft)
18.08.2016 00:36 14,3 C 93 % 1012,6 hPa 0,0 l/m 1,5 km/h (1 Bft) NW 323 0 min 0 W/m 13,2 C 14,3 C 4,8 km/h (1 Bft)
18.08.2016 00:39 14,2 C 93 % 1012,5 hPa 0,0 l/m 1,4 km/h (1 Bft) N-NW 336 0 min 0 W/m 13,1 C 14,2 C 4,8 km/h (1 Bft)
18.08.2016 00:42 14,2 C 93 % 1012,5 hPa 0,0 l/m 0,8 km/h (0 Bft) N-NW 338 0 min 0 W/m 13,1 C 14,2 C 3,2 km/h (1 Bft)
18.08.2016 00:45 14,2 C 93 % 1012,5 hPa 0,0 l/m 0,7 km/h (0 Bft) N-NW 338 0 min 0 W/m 13,1 C 14,2 C 3,2 km/h (1 Bft)
18.08.2016 00:48 14,1 C 94 % 1012,6 hPa 0,0 l/m 0,4 km/h (0 Bft) N-NW 338 0 min 0 W/m 13,1 C 14,1 C 1,6 km/h (1 Bft)
18.08.2016 00:51 14,1 C 94 % 1012,6 hPa 0,0 l/m 0,1 km/h (0 Bft) N-NW 338 0 min 0 W/m 13,1 C 14,1 C 1,6 km/h (1 Bft)
18.08.2016 00:54 14,0 C 94 % 1012,6 hPa 0,0 l/m 0,8 km/h (0 Bft) N-NW 338 0 min 0 W/m 13,0 C 14,0 C 4,8 km/h (1 Bft)
18.08.2016 00:57 14,0 C 94 % 1012,5 hPa 0,0 l/m 0,8 km/h (0 Bft) N-NW 338 0 min 0 W/m 13,0 C 14,0 C 3,2 km/h (1 Bft)
18.08.2016 01:00 14,0 C 94 % 1012,5 hPa 0,0 l/m 0,7 km/h (0 Bft) N-NW 338 0 min 0 W/m 13,0 C 14,0 C 3,2 km/h (1 Bft)
18.08.2016 01:03 13,9 C 94 % 1012,5 hPa 0,0 l/m 1,2 km/h (1 Bft) N-NW 338 0 min 0 W/m 12,9 C 13,9 C 3,2 km/h (1 Bft)
18.08.2016 01:06 13,9 C 94 % 1012,5 hPa 0,0 l/m 0,8 km/h (0 Bft) N-NW 338 0 min 0 W/m 12,9 C 13,9 C 1,6 km/h (1 Bft)
18.08.2016 01:09 13,9 C 94 % 1012,5 hPa 0,0 l/m 1,4 km/h (1 Bft) N-NW 338 0 min 0 W/m 12,9 C 13,9 C 3,2 km/h (1 Bft)
18.08.2016 01:12 13,9 C 94 % 1012,5 hPa 0,0 l/m 0,2 km/h (0 Bft) N-NW 338 0 min 0 W/m 12,9 C 13,9 C 1,6 km/h (1 Bft)
18.08.2016 01:15 13,9 C 95 % 1012,5 hPa 0,0 l/m 0,3 km/h (0 Bft) N-NW 338 0 min 0 W/m 13,1 C 13,9 C 1,6 km/h (1 Bft)
18.08.2016 01:18 13,9 C 95 % 1012,5 hPa 0,0 l/m 0,1 km/h (0 Bft) N-NW 338 0 min 0 W/m 13,1 C 13,9 C 1,6 km/h (1 Bft)
18.08.2016 01:21 13,9 C 95 % 1012,4 hPa 0,0 l/m 0,7 km/h (0 Bft) N-NW 338 0 min 0 W/m 13,1 C 13,9 C 3,2 km/h (1 Bft)
18.08.2016 01:24 13,9 C 95 % 1012,4 hPa 0,0 l/m 0,0 km/h (0 Bft) N-NW 338 0 min 0 W/m 13,1 C 13,9 C 1,6 km/h (1 Bft)
18.08.2016 01:27 13,8 C 94 % 1012,4 hPa 0,0 l/m 0,2 km/h (0 Bft) N-NW 338 0 min 0 W/m 12,9 C 13,8 C 1,6 km/h (1 Bft)
18.08.2016 01:30 13,7 C 94 % 1012,4 hPa 0,0 l/m 0,0 km/h (0 Bft) N-NW 338 0 min 0 W/m 12,8 C 13,7 C 1,6 km/h (1 Bft)
18.08.2016 01:33 13,6 C 94 % 1012,4 hPa 0,0 l/m 0,0 km/h (0 Bft) N-NW 338 0 min 0 W/m 12,7 C 13,6 C 0,0 km/h (0 Bft)
18.08.2016 01:36 13,4 C 94 % 1012,3 hPa 0,0 l/m 0,0 km/h (0 Bft) N-NW 338 0 min 0 W/m 12,5 C 13,4 C 0,0 km/h (0 Bft)
18.08.2016 01:39 13,2 C 94 % 1012,3 hPa 0,0 l/m 0,1 km/h (0 Bft) N-NW 338 0 min 0 W/m 12,3 C 13,2 C 1,6 km/h (1 Bft)
18.08.2016 01:42 13,1 C 94 % 1012,3 hPa 0,0 l/m 0,0 km/h (0 Bft) N-NW 338 0 min 0 W/m 12,2 C 13,1 C 0,0 km/h (0 Bft)
18.08.2016 01:45 13,0 C 94 % 1012,3 hPa 0,0 l/m 0,0 km/h (0 Bft) N-NW 338 0 min 0 W/m 12,1 C 13,0 C 0,0 km/h (0 Bft)
18.08.2016 01:48 12,9 C 94 % 1012,2 hPa 0,0 l/m 0,0 km/h (0 Bft) N-NW 338 0 min 0 W/m 12,0 C 12,9 C 1,6 km/h (1 Bft)
18.08.2016 01:51 12,9 C 94 % 1012,3 hPa 0,0 l/m 0,1 km/h (0 Bft) N-NW 338 0 min 0 W/m 12,0 C 12,9 C 1,6 km/h (1 Bft)
18.08.2016 01:54 12,8 C 94 % 1012,2 hPa 0,0 l/m 1,2 km/h (1 Bft) N-NW 338 0 min 0 W/m 11,9 C 12,8 C 1,6 km/h (1 Bft)
18.08.2016 01:57 12,8 C 94 % 1012,2 hPa 0,0 l/m 0,7 km/h (0 Bft) N-NW 338 0 min 0 W/m 11,9 C 12,8 C 1,6 km/h (1 Bft)
18.08.2016 02:00 12,8 C 95 % 1012,2 hPa 0,0 l/m 0,5 km/h (0 Bft) N-NW 338 0 min 0 W/m 12,0 C 12,8 C 1,6 km/h (1 Bft)
18.08.2016 02:03 12,8 C 94 % 1012,2 hPa 0,0 l/m 0,0 km/h (0 Bft) N-NW 338 0 min 0 W/m 11,9 C 12,8 C 0,0 km/h (0 Bft)
18.08.2016 02:06 12,7 C 94 % 1012,1 hPa 0,0 l/m 0,0 km/h (0 Bft) N-NW 338 0 min 0 W/m 11,8 C 12,7 C 1,6 km/h (1 Bft)
18.08.2016 02:09 12,7 C 94 % 1012,1 hPa 0,0 l/m 0,6 km/h (0 Bft) N-NW 338 0 min 0 W/m 11,8 C 12,7 C 3,2 km/h (1 Bft)
18.08.2016 02:12 12,7 C 94 % 1012,1 hPa 0,0 l/m 0,5 km/h (0 Bft) N-NW 338 0 min 0 W/m 11,8 C 12,7 C 1,6 km/h (1 Bft)
18.08.2016 02:15 12,7 C 95 % 1012,1 hPa 0,0 l/m 0,5 km/h (0 Bft) N-NW 338 0 min 0 W/m 11,9 C 12,7 C 3,2 km/h (1 Bft)
18.08.2016 02:18 12,8 C 95 % 1012,1 hPa 0,0 l/m 0,4 km/h (0 Bft) N-NW 338 0 min 0 W/m 12,0 C 12,8 C 1,6 km/h (1 Bft)
18.08.2016 02:21 12,7 C 94 % 1012,0 hPa 0,0 l/m 0,3 km/h (0 Bft) N-NW 338 0 min 0 W/m 11,8 C 12,7 C 3,2 km/h (1 Bft)
18.08.2016 02:24 12,5 C 94 % 1012,0 hPa 0,0 l/m 0,1 km/h (0 Bft) N-NW 338 0 min 0 W/m 11,6 C 12,5 C 1,6 km/h (1 Bft)
18.08.2016 02:27 12,3 C 94 % 1012,0 hPa 0,0 l/m 0,3 km/h (0 Bft) N-NW 338 0 min 0 W/m 11,4 C 12,3 C 1,6 km/h (1 Bft)
18.08.2016 02:30 12,2 C 94 % 1012,0 hPa 0,0 l/m 0,1 km/h (0 Bft) N-NW 338 0 min 0 W/m 11,3 C 12,2 C 1,6 km/h (1 Bft)
18.08.2016 02:33 12,1 C 94 % 1012,0 hPa 0,0 l/m 0,3 km/h (0 Bft) N-NW 338 0 min 0 W/m 11,2 C 12,1 C 1,6 km/h (1 Bft)
18.08.2016 02:36 12,1 C 94 % 1012,0 hPa 0,0 l/m 0,0 km/h (0 Bft) N-NW 338 0 min 0 W/m 11,2 C 12,1 C 1,6 km/h (1 Bft)
18.08.2016 02:39 12,1 C 94 % 1012,0 hPa 0,0 l/m 0,2 km/h (0 Bft) N-NW 338 0 min 0 W/m 11,2 C 12,1 C 3,2 km/h (1 Bft)
18.08.2016 02:42 12,0 C 94 % 1011,9 hPa 0,0 l/m 0,3 km/h (0 Bft) N-NW 338 0 min 0 W/m 11,1 C 12,0 C 3,2 km/h (1 Bft)
18.08.2016 02:45 11,9 C 94 % 1011,8 hPa 0,0 l/m 0,3 km/h (0 Bft) N-NW 338 0 min 0 W/m 11,0 C 11,9 C 1,6 km/h (1 Bft)
18.08.2016 02:48 12,0 C 94 % 1011,9 hPa 0,0 l/m 0,3 km/h (0 Bft) N-NW 338 0 min 0 W/m 11,1 C 12,0 C 1,6 km/h (1 Bft)
18.08.2016 02:51 12,0 C 94 % 1011,8 hPa 0,0 l/m 0,2 km/h (0 Bft) N-NW 338 0 min 0 W/m 11,1 C 12,0 C 1,6 km/h (1 Bft)
18.08.2016 02:54 12,0 C 94 % 1011,8 hPa 0,0 l/m 0,3 km/h (0 Bft) N-NW 338 0 min 0 W/m 11,1 C 12,0 C 1,6 km/h (1 Bft)
18.08.2016 02:57 11,9 C 94 % 1011,7 hPa 0,0 l/m 0,3 km/h (0 Bft) N-NW 338 0 min 0 W/m 11,0 C 11,9 C 1,6 km/h (1 Bft)
18.08.2016 03:00 11,9 C 94 % 1011,7 hPa 0,0 l/m 0,1 km/h (0 Bft) N-NW 338 0 min 0 W/m 11,0 C 11,9 C 1,6 km/h (1 Bft)
18.08.2016 03:03 11,9 C 94 % 1011,7 hPa 0,0 l/m 0,5 km/h (0 Bft) N-NW 338 0 min 0 W/m 11,0 C 11,9 C 1,6 km/h (1 Bft)
18.08.2016 03:06 11,8 C 94 % 1011,7 hPa 0,0 l/m 0,4 km/h (0 Bft) N-NW 338 0 min 0 W/m 10,9 C 11,8 C 1,6 km/h (1 Bft)
18.08.2016 03:09 11,7 C 94 % 1011,6 hPa 0,0 l/m 1,5 km/h (1 Bft) NW 309 0 min 0 W/m 10,8 C 11,7 C 4,8 km/h (1 Bft)
18.08.2016 03:12 11,7 C 94 % 1011,6 hPa 0,0 l/m 1,9 km/h (1 Bft) NW 322 0 min 0 W/m 10,8 C 11,7 C 4,8 km/h (1 Bft)
18.08.2016 03:15 11,7 C 94 % 1011,5 hPa 0,0 l/m 0,4 km/h (0 Bft) NW 322 0 min 0 W/m 10,8 C 11,7 C 1,6 km/h (1 Bft)
18.08.2016 03:18 11,6 C 94 % 1011,5 hPa 0,0 l/m 0,3 km/h (0 Bft) NW 322 0 min 0 W/m 10,7 C 11,6 C 1,6 km/h (1 Bft)
18.08.2016 03:21 11,6 C 94 % 1011,6 hPa 0,0 l/m 0,7 km/h (0 Bft) NW 322 0 min 0 W/m 10,7 C 11,6 C 3,2 km/h (1 Bft)
18.08.2016 03:24 11,6 C 94 % 1011,5 hPa 0,0 l/m 0,9 km/h (0 Bft) NW 322 0 min 0 W/m 10,7 C 11,6 C 3,2 km/h (1 Bft)
18.08.2016 03:27 11,7 C 94 % 1011,5 hPa 0,0 l/m 0,8 km/h (0 Bft) NW 322 0 min 0 W/m 10,8 C 11,7 C 3,2 km/h (1 Bft)
18.08.2016 03:30 11,8 C 94 % 1011,5 hPa 0,0 l/m 0,3 km/h (0 Bft) NW 322 0 min 0 W/m 10,9 C 11,8 C 1,6 km/h (1 Bft)
18.08.2016 03:33 12,0 C 95 % 1011,4 hPa 0,0 l/m 1,0 km/h (0 Bft) NW 317 0 min 0 W/m 11,2 C 12,0 C 3,2 km/h (1 Bft)
18.08.2016 03:36 12,2 C 95 % 1011,4 hPa 0,0 l/m 2,2 km/h (1 Bft) N 355 0 min 0 W/m 11,4 C 12,2 C 6,4 km/h (2 Bft)
18.08.2016 03:39 12,4 C 95 % 1011,4 hPa 0,0 l/m 1,4 km/h (1 Bft) N 350 0 min 0 W/m 11,6 C 12,4 C 3,2 km/h (1 Bft)
18.08.2016 03:42 12,6 C 95 % 1011,4 hPa 0,0 l/m 1,8 km/h (1 Bft) N 350 0 min 0 W/m 11,8 C 12,6 C 4,8 km/h (1 Bft)
18.08.2016 03:45 12,7 C 96 % 1011,4 hPa 0,0 l/m 1,4 km/h (1 Bft) N 5 0 min 0 W/m 12,1 C 12,7 C 4,8 km/h (1 Bft)
18.08.2016 03:48 12,8 C 95 % 1011,3 hPa 0,0 l/m 0,6 km/h (0 Bft) N 5 0 min 0 W/m 12,0 C 12,8 C 1,6 km/h (1 Bft)
18.08.2016 03:51 12,9 C 96 % 1011,3 hPa 0,0 l/m 1,5 km/h (1 Bft) N 9 0 min 0 W/m 12,3 C 12,9 C 3,2 km/h (1 Bft)
18.08.2016 03:54 13,0 C 95 % 1011,3 hPa 0,0 l/m 2,0 km/h (1 Bft) N 350 0 min 0 W/m 12,2 C 13,0 C 4,8 km/h (1 Bft)
18.08.2016 03:57 13,1 C 96 % 1011,3 hPa 0,0 l/m 1,8 km/h (1 Bft) N-NW 332 0 min 0 W/m 12,5 C 13,1 C 3,2 km/h (1 Bft)
18.08.2016 04:00 13,2 C 96 % 1011,3 hPa 0,0 l/m 1,2 km/h (1 Bft) N-NW 332 0 min 0 W/m 12,6 C 13,2 C 3,2 km/h (1 Bft)
18.08.2016 04:03 13,3 C 96 % 1011,2 hPa 0,0 l/m 1,7 km/h (1 Bft) N 5 0 min 0 W/m 12,7 C 13,3 C 4,8 km/h (1 Bft)
18.08.2016 04:06 13,3 C 96 % 1011,2 hPa 0,0 l/m 1,1 km/h (1 Bft) N-NW 344 0 min 0 W/m 12,7 C 13,3 C 6,4 km/h (2 Bft)
18.08.2016 04:09 13,4 C 96 % 1011,2 hPa 0,0 l/m 1,8 km/h (1 Bft) N-NW 347 0 min 0 W/m 12,8 C 13,4 C 4,8 km/h (1 Bft)
18.08.2016 04:12 13,5 C 96 % 1011,1 hPa 0,0 l/m 1,9 km/h (1 Bft) N-NW 347 0 min 0 W/m 12,9 C 13,5 C 4,8 km/h (1 Bft)
18.08.2016 04:15 13,4 C 96 % 1011,1 hPa 0,0 l/m 1,4 km/h (1 Bft) N-NW 345 0 min 0 W/m 12,8 C 13,4 C 4,8 km/h (1 Bft)
18.08.2016 04:18 13,5 C 96 % 1011,2 hPa 0,0 l/m 2,5 km/h (1 Bft) N-NW 347 0 min 0 W/m 12,9 C 13,5 C 4,8 km/h (1 Bft)
18.08.2016 04:21 13,6 C 96 % 1011,2 hPa 0,0 l/m 1,9 km/h (1 Bft) N-NW 347 0 min 0 W/m 13,0 C 13,6 C 3,2 km/h (1 Bft)
18.08.2016 04:24 13,7 C 96 % 1011,1 hPa 0,0 l/m 2,7 km/h (1 Bft) N-NW 340 0 min 0 W/m 13,1 C 13,7 C 4,8 km/h (1 Bft)
18.08.2016 04:27 13,8 C 96 % 1011,0 hPa 0,0 l/m 1,6 km/h (1 Bft) N-NW 340 0 min 0 W/m 13,2 C 13,8 C 3,2 km/h (1 Bft)
18.08.2016 04:30 13,9 C 96 % 1011,0 hPa 0,0 l/m 2,7 km/h (1 Bft) N 355 0 min 0 W/m 13,3 C 13,9 C 6,4 km/h (2 Bft)
18.08.2016 04:33 14,0 C 96 % 1011,0 hPa 0,0 l/m 2,1 km/h (1 Bft) N 355 0 min 0 W/m 13,4 C 14,0 C 3,2 km/h (1 Bft)
18.08.2016 04:36 14,1 C 96 % 1010,9 hPa 0,0 l/m 1,9 km/h (1 Bft) N 355 0 min 0 W/m 13,5 C 14,1 C 4,8 km/h (1 Bft)
18.08.2016 04:39 14,1 C 96 % 1010,9 hPa 0,0 l/m 1,6 km/h (1 Bft) N-NO 21 0 min 0 W/m 13,5 C 14,1 C 3,2 km/h (1 Bft)
18.08.2016 04:42 14,1 C 96 % 1010,9 hPa 0,0 l/m 2,0 km/h (1 Bft) N-NW 332 0 min 0 W/m 13,5 C 14,1 C 6,4 km/h (2 Bft)
18.08.2016 04:45 14,1 C 96 % 1010,9 hPa 0,0 l/m 1,9 km/h (1 Bft) N-NW 333 0 min 0 W/m 13,5 C 14,1 C 4,8 km/h (1 Bft)
18.08.2016 04:48 14,1 C 96 % 1010,8 hPa 0,0 l/m 1,0 km/h (0 Bft) N-NW 338 0 min 0 W/m 13,5 C 14,1 C 4,8 km/h (1 Bft)
18.08.2016 04:51 14,0 C 96 % 1010,9 hPa 0,0 l/m 1,3 km/h (1 Bft) N-NW 338 0 min 0 W/m 13,4 C 14,0 C 3,2 km/h (1 Bft)
18.08.2016 04:54 13,9 C 96 % 1010,8 hPa 0,0 l/m 1,1 km/h (1 Bft) N-NW 338 0 min 0 W/m 13,3 C 13,9 C 3,2 km/h (1 Bft)
18.08.2016 04:57 13,9 C 96 % 1010,9 hPa 0,0 l/m 2,3 km/h (1 Bft) N-NW 338 0 min 0 W/m 13,3 C 13,9 C 4,8 km/h (1 Bft)
18.08.2016 05:00 13,9 C 96 % 1010,9 hPa 0,0 l/m 2,2 km/h (1 Bft) N-NW 340 0 min 0 W/m 13,3 C 13,9 C 4,8 km/h (1 Bft)
18.08.2016 05:03 13,8 C 96 % 1010,8 hPa 0,0 l/m 2,1 km/h (1 Bft) N-NW 340 0 min 0 W/m 13,2 C 13,8 C 3,2 km/h (1 Bft)
18.08.2016 05:06 13,9 C 96 % 1010,8 hPa 0,0 l/m 2,2 km/h (1 Bft) N-NW 342 0 min 0 W/m 13,3 C 13,9 C 4,8 km/h (1 Bft)
18.08.2016 05:09 13,9 C 96 % 1010,8 hPa 0,0 l/m 1,3 km/h (1 Bft) N-NW 342 0 min 0 W/m 13,3 C 13,9 C 3,2 km/h (1 Bft)
18.08.2016 05:12 13,8 C 96 % 1010,7 hPa 0,0 l/m 2,0 km/h (1 Bft) N-NW 342 0 min 0 W/m 13,2 C 13,8 C 3,2 km/h (1 Bft)
18.08.2016 05:15 13,8 C 96 % 1010,8 hPa 0,0 l/m 2,1 km/h (1 Bft) N-NW 342 0 min 0 W/m 13,2 C 13,8 C 4,8 km/h (1 Bft)
18.08.2016 05:18 13,8 C 96 % 1010,7 hPa 0,0 l/m 3,0 km/h (1 Bft) N-NW 347 0 min 0 W/m 13,2 C 13,8 C 4,8 km/h (1 Bft)
18.08.2016 05:21 13,8 C 97 % 1010,6 hPa 0,0 l/m 1,9 km/h (1 Bft) N-NW 346 0 min 0 W/m 13,3 C 13,8 C 4,8 km/h (1 Bft)
18.08.2016 05:24 13,9 C 97 % 1010,6 hPa 0,0 l/m 2,4 km/h (1 Bft) N-NW 346 0 min 0 W/m 13,4 C 13,9 C 4,8 km/h (1 Bft)
18.08.2016 05:27 13,9 C 97 % 1010,6 hPa 0,0 l/m 1,5 km/h (1 Bft) N 355 0 min 0 W/m 13,4 C 13,9 C 4,8 km/h (1 Bft)
18.08.2016 05:30 13,9 C 97 % 1010,7 hPa 0,0 l/m 1,5 km/h (1 Bft) N-NW 345 0 min 0 W/m 13,4 C 13,9 C 3,2 km/h (1 Bft)
18.08.2016 05:33 14,0 C 97 % 1010,6 hPa 0,0 l/m 0,9 km/h (0 Bft) N-NW 344 0 min 0 W/m 13,5 C 14,0 C 3,2 km/h (1 Bft)
18.08.2016 05:36 13,9 C 96 % 1010,6 hPa 0,0 l/m 1,8 km/h (1 Bft) N-NW 344 0 min 0 W/m 13,3 C 13,9 C 4,8 km/h (1 Bft)
18.08.2016 05:39 13,9 C 96 % 1010,6 hPa 0,0 l/m 1,5 km/h (1 Bft) N-NW 344 0 min 0 W/m 13,3 C 13,9 C 3,2 km/h (1 Bft)
18.08.2016 05:42 13,9 C 97 % 1010,5 hPa 0,0 l/m 1,6 km/h (1 Bft) N-NW 344 0 min 0 W/m 13,4 C 13,9 C 4,8 km/h (1 Bft)
18.08.2016 05:45 13,9 C 97 % 1010,5 hPa 0,0 l/m 0,9 km/h (0 Bft) N-NW 344 0 min 0 W/m 13,4 C 13,9 C 3,2 km/h (1 Bft)
18.08.2016 05:48 13,9 C 97 % 1010,4 hPa 0,0 l/m 0,1 km/h (0 Bft) N-NW 344 0 min 0 W/m 13,4 C 13,9 C 1,6 km/h (1 Bft)
18.08.2016 05:51 13,8 C 97 % 1010,4 hPa 0,0 l/m 0,6 km/h (0 Bft) N-NW 344 0 min 0 W/m 13,3 C 13,8 C 3,2 km/h (1 Bft)
18.08.2016 05:54 13,8 C 97 % 1010,4 hPa 0,0 l/m 1,3 km/h (1 Bft) N-NW 344 0 min 0 W/m 13,3 C 13,8 C 3,2 km/h (1 Bft)
18.08.2016 05:57 13,7 C 97 % 1010,4 hPa 0,0 l/m 1,0 km/h (0 Bft) N-NW 344 0 min 0 W/m 13,2 C 13,7 C 3,2 km/h (1 Bft)
18.08.2016 06:00 13,7 C 96 % 1010,4 hPa 0,0 l/m 1,0 km/h (0 Bft) N-NW 344 0 min 0 W/m 13,1 C 13,7 C 3,2 km/h (1 Bft)
18.08.2016 06:03 13,7 C 96 % 1010,3 hPa 0,0 l/m 0,6 km/h (0 Bft) N-NW 344 0 min 0 W/m 13,1 C 13,7 C 1,6 km/h (1 Bft)
18.08.2016 06:06 13,6 C 96 % 1010,3 hPa 0,0 l/m 0,3 km/h (0 Bft) N-NW 344 0 min 0 W/m 13,0 C 13,6 C 1,6 km/h (1 Bft)
18.08.2016 06:09 13,6 C 97 % 1010,3 hPa 0,0 l/m 0,0 km/h (0 Bft) N-NW 344 0 min 0 W/m 13,1 C 13,6 C 1,6 km/h (1 Bft)
18.08.2016 06:12 13,5 C 97 % 1010,3 hPa 0,0 l/m 0,1 km/h (0 Bft) N-NW 344 0 min 0 W/m 13,0 C 13,5 C 1,6 km/h (1 Bft)
18.08.2016 06:15 13,5 C 97 % 1010,3 hPa 0,0 l/m 0,0 km/h (0 Bft) N-NW 344 0 min 0 W/m 13,0 C 13,5 C 0,0 km/h (0 Bft)
18.08.2016 06:18 13,3 C 96 % 1010,3 hPa 0,0 l/m 0,4 km/h (0 Bft) N-NW 340 0 min 0 W/m 12,7 C 13,3 C 3,2 km/h (1 Bft)
18.08.2016 06:21 13,1 C 96 % 1010,3 hPa 0,0 l/m 0,3 km/h (0 Bft) N-NW 340 0 min 0 W/m 12,5 C 13,1 C 1,6 km/h (1 Bft)
18.08.2016 06:24 12,8 C 96 % 1010,3 hPa 0,0 l/m 0,2 km/h (0 Bft) N-NW 340 0 min 0 W/m 12,2 C 12,8 C 1,6 km/h (1 Bft)
18.08.2016 06:27 12,7 C 96 % 1010,3 hPa 0,0 l/m 1,0 km/h (0 Bft) N-NW 340 0 min 5 W/m 12,1 C 12,7 C 3,2 km/h (1 Bft)
18.08.2016 06:30 12,6 C 96 % 1010,2 hPa 0,0 l/m 0,9 km/h (0 Bft) NW 314 0 min 5 W/m 12,0 C 12,6 C 3,2 km/h (1 Bft)
18.08.2016 06:33 12,5 C 96 % 1010,3 hPa 0,0 l/m 1,8 km/h (1 Bft) NW 313 0 min 5 W/m 11,9 C 12,5 C 3,2 km/h (1 Bft)
18.08.2016 06:36 12,5 C 96 % 1010,3 hPa 0,0 l/m 2,0 km/h (1 Bft) NW 313 0 min 7 W/m 11,9 C 12,5 C 3,2 km/h (1 Bft)
18.08.2016 06:39 12,7 C 97 % 1010,3 hPa 0,0 l/m 2,8 km/h (1 Bft) NW 313 0 min 7 W/m 12,2 C 12,7 C 4,8 km/h (1 Bft)
18.08.2016 06:42 12,8 C 97 % 1010,3 hPa 0,0 l/m 2,1 km/h (1 Bft) NW 314 0 min 7 W/m 12,3 C 12,8 C 4,8 km/h (1 Bft)
18.08.2016 06:45 12,9 C 97 % 1010,2 hPa 0,0 l/m 1,3 km/h (1 Bft) NW 314 0 min 9 W/m 12,4 C 12,9 C 3,2 km/h (1 Bft)
18.08.2016 06:48 12,9 C 97 % 1010,2 hPa 0,0 l/m 1,0 km/h (0 Bft) NW 314 0 min 11 W/m 12,4 C 12,9 C 4,8 km/h (1 Bft)
18.08.2016 06:51 13,0 C 97 % 1010,3 hPa 0,0 l/m 2,1 km/h (1 Bft) NW 314 0 min 19 W/m 12,5 C 13,0 C 4,8 km/h (1 Bft)
18.08.2016 06:54 13,2 C 97 % 1010,2 hPa 0,0 l/m 2,2 km/h (1 Bft) NW 314 0 min 21 W/m 12,7 C 13,2 C 3,2 km/h (1 Bft)
18.08.2016 06:57 13,3 C 97 % 1010,2 hPa 0,0 l/m 3,6 km/h (1 Bft) N-NW 343 0 min 23 W/m 12,8 C 13,3 C 8,0 km/h (2 Bft)
18.08.2016 07:00 13,7 C 97 % 1010,2 hPa 0,0 l/m 4,4 km/h (1 Bft) N 5 0 min 26 W/m 13,2 C 13,7 C 8,0 km/h (2 Bft)
18.08.2016 07:03 13,9 C 97 % 1010,3 hPa 0,0 l/m 4,1 km/h (1 Bft) N-NW 343 0 min 25 W/m 13,4 C 13,9 C 9,7 km/h (2 Bft)
18.08.2016 07:06 14,3 C 98 % 1010,2 hPa 0,0 l/m 5,3 km/h (1 Bft) NW 324 0 min 28 W/m 14,0 C 14,3 C 9,7 km/h (2 Bft)
18.08.2016 07:09 14,6 C 98 % 1010,2 hPa 0,0 l/m 4,8 km/h (1 Bft) NW 304 0 min 23 W/m 14,3 C 14,6 C 8,0 km/h (2 Bft)
18.08.2016 07:12 14,6 C 97 % 1010,2 hPa 0,0 l/m 4,2 km/h (1 Bft) N-NW 327 0 min 21 W/m 14,1 C 14,6 C 8,0 km/h (2 Bft)
18.08.2016 07:15 14,7 C 97 % 1010,2 hPa 0,0 l/m 4,0 km/h (1 Bft) N 350 0 min 46 W/m 14,2 C 14,7 C 8,0 km/h (2 Bft)
18.08.2016 07:18 14,8 C 97 % 1010,2 hPa 0,0 l/m 3,7 km/h (1 Bft) NW 325 0 min 42 W/m 14,3 C 14,8 C 4,8 km/h (1 Bft)
18.08.2016 07:21 14,9 C 97 % 1010,3 hPa 0,0 l/m 5,7 km/h (2 Bft) NW 322 0 min 32 W/m 14,4 C 14,9 C 14,5 km/h (3 Bft)
18.08.2016 07:24 15,0 C 97 % 1010,3 hPa 0,0 l/m 6,1 km/h (2 Bft) N 355 0 min 32 W/m 14,5 C 15,0 C 11,3 km/h (2 Bft)
18.08.2016 07:27 15,1 C 97 % 1010,2 hPa 0,0 l/m 6,0 km/h (2 Bft) NW 313 0 min 33 W/m 14,6 C 15,1 C 12,9 km/h (3 Bft)
18.08.2016 07:30 15,1 C 96 % 1010,2 hPa 0,0 l/m 6,2 km/h (2 Bft) N-NW 329 0 min 32 W/m 14,5 C 15,1 C 12,9 km/h (3 Bft)
18.08.2016 07:33 15,1 C 96 % 1010,3 hPa 0,0 l/m 4,9 km/h (1 Bft) N-NW 348 0 min 32 W/m 14,5 C 15,1 C 9,7 km/h (2 Bft)
18.08.2016 07:36 15,1 C 96 % 1010,3 hPa 0,0 l/m 4,9 km/h (1 Bft) NW 320 0 min 47 W/m 14,5 C 15,1 C 8,0 km/h (2 Bft)
18.08.2016 07:39 15,2 C 96 % 1010,2 hPa 0,0 l/m 5,9 km/h (2 Bft) N 5 0 min 35 W/m 14,6 C 15,2 C 9,7 km/h (2 Bft)
18.08.2016 07:42 15,2 C 96 % 1010,3 hPa 0,0 l/m 6,0 km/h (2 Bft) N 355 0 min 44 W/m 14,6 C 15,2 C 8,0 km/h (2 Bft)
18.08.2016 07:45 15,2 C 96 % 1010,3 hPa 0,0 l/m 7,3 km/h (2 Bft) N-NW 338 0 min 44 W/m 14,6 C 14,7 C 12,9 km/h (3 Bft)
18.08.2016 07:48 15,3 C 96 % 1010,3 hPa 0,0 l/m 6,6 km/h (2 Bft) N-NW 342 0 min 49 W/m 14,7 C 15,2 C 12,9 km/h (3 Bft)
18.08.2016 07:51 15,3 C 95 % 1010,3 hPa 0,0 l/m 6,7 km/h (2 Bft) N 360 0 min 56 W/m 14,5 C 15,1 C 12,9 km/h (3 Bft)
18.08.2016 07:54 15,4 C 95 % 1010,3 hPa 0,0 l/m 7,8 km/h (2 Bft) N 355 0 min 63 W/m 14,6 C 14,6 C 14,5 km/h (3 Bft)
18.08.2016 07:57 15,5 C 95 % 1010,3 hPa 0,0 l/m 8,4 km/h (2 Bft) N-NW 334 0 min 44 W/m 14,7 C 14,4 C 14,5 km/h (3 Bft)
18.08.2016 08:00 15,5 C 94 % 1010,3 hPa 0,0 l/m 5,0 km/h (1 Bft) N-NW 327 0 min 47 W/m 14,5 C 15,5 C 11,3 km/h (2 Bft)
18.08.2016 08:03 15,4 C 94 % 1010,3 hPa 0,0 l/m 5,1 km/h (1 Bft) N-NW 332 0 min 70 W/m 14,4 C 15,4 C 9,7 km/h (2 Bft)
18.08.2016 08:06 15,6 C 94 % 1010,3 hPa 0,0 l/m 6,3 km/h (2 Bft) N 355 0 min 56 W/m 14,6 C 15,6 C 17,7 km/h (3 Bft)
18.08.2016 08:09 15,7 C 94 % 1010,3 hPa 0,0 l/m 4,9 km/h (1 Bft) NW 319 0 min 37 W/m 14,7 C 15,7 C 9,7 km/h (2 Bft)
18.08.2016 08:12 15,7 C 95 % 1010,3 hPa 0,0 l/m 5,7 km/h (2 Bft) N-NW 345 0 min 60 W/m 14,9 C 15,7 C 12,9 km/h (3 Bft)
18.08.2016 08:15 15,8 C 95 % 1010,3 hPa 0,0 l/m 5,5 km/h (2 Bft) W-NW 295 0 min 69 W/m 15,0 C 15,8 C 12,9 km/h (3 Bft)
18.08.2016 08:18 15,8 C 95 % 1010,4 hPa 0,0 l/m 5,6 km/h (2 Bft) N-NW 331 0 min 58 W/m 15,0 C 15,8 C 12,9 km/h (3 Bft)
18.08.2016 08:21 15,7 C 95 % 1010,4 hPa 0,0 l/m 5,1 km/h (1 Bft) N-NW 343 0 min 67 W/m 14,9 C 15,7 C 11,3 km/h (2 Bft)
18.08.2016 08:24 15,7 C 95 % 1010,3 hPa 0,0 l/m 4,2 km/h (1 Bft) N 5 0 min 81 W/m 14,9 C 15,7 C 12,9 km/h (3 Bft)
18.08.2016 08:27 15,7 C 95 % 1010,4 hPa 0,0 l/m 5,4 km/h (2 Bft) N-NW 345 0 min 100 W/m 14,9 C 15,7 C 12,9 km/h (3 Bft)
18.08.2016 08:30 15,7 C 95 % 1010,4 hPa 0,0 l/m 4,9 km/h (1 Bft) N 355 0 min 76 W/m 14,9 C 15,7 C 12,9 km/h (3 Bft)
18.08.2016 08:33 15,7 C 95 % 1010,4 hPa 0,0 l/m 5,6 km/h (2 Bft) N 360 0 min 90 W/m 14,9 C 15,7 C 12,9 km/h (3 Bft)
18.08.2016 08:36 15,7 C 95 % 1010,4 hPa 0,0 l/m 6,1 km/h (2 Bft) N-NW 342 0 min 121 W/m 14,9 C 15,7 C 16,1 km/h (3 Bft)
18.08.2016 08:39 15,7 C 95 % 1010,4 hPa 0,0 l/m 5,3 km/h (1 Bft) W-NW 298 0 min 118 W/m 14,9 C 15,7 C 9,7 km/h (2 Bft)
18.08.2016 08:42 15,6 C 95 % 1010,4 hPa 0,0 l/m 4,3 km/h (1 Bft) NW 315 0 min 109 W/m 14,8 C 15,6 C 9,7 km/h (2 Bft)
18.08.2016 08:45 15,6 C 94 % 1010,3 hPa 0,0 l/m 5,2 km/h (1 Bft) NW 324 0 min 83 W/m 14,6 C 15,6 C 12,9 km/h (3 Bft)
18.08.2016 08:48 15,5 C 94 % 1010,3 hPa 0,0 l/m 5,1 km/h (1 Bft) N-NW 329 0 min 58 W/m 14,5 C 15,5 C 11,3 km/h (2 Bft)
18.08.2016 08:51 15,4 C 94 % 1010,4 hPa 0,0 l/m 5,5 km/h (2 Bft) N-NW 337 0 min 39 W/m 14,4 C 15,4 C 12,9 km/h (3 Bft)
18.08.2016 08:54 15,3 C 94 % 1010,4 hPa 0,0 l/m 4,6 km/h (1 Bft) NW 320 0 min 79 W/m 14,3 C 15,3 C 9,7 km/h (2 Bft)
18.08.2016 08:57 15,4 C 95 % 1010,4 hPa 0,0 l/m 4,0 km/h (1 Bft) N 5 0 min 76 W/m 14,6 C 15,4 C 9,7 km/h (2 Bft)
18.08.2016 09:00 15,5 C 95 % 1010,4 hPa 0,0 l/m 5,3 km/h (1 Bft) N 349 0 min 134 W/m 14,7 C 15,5 C 11,3 km/h (2 Bft)
18.08.2016 09:03 15,6 C 95 % 1010,4 hPa 0,0 l/m 4,5 km/h (1 Bft) N-NW 338 0 min 111 W/m 14,8 C 15,6 C 8,0 km/h (2 Bft)
18.08.2016 09:06 15,6 C 94 % 1010,4 hPa 0,0 l/m 5,0 km/h (1 Bft) N-NW 338 0 min 125 W/m 14,6 C 15,6 C 9,7 km/h (2 Bft)
18.08.2016 09:09 15,7 C 94 % 1010,4 hPa 0,0 l/m 5,1 km/h (1 Bft) NW 324 0 min 113 W/m 14,7 C 15,7 C 8,0 km/h (2 Bft)
18.08.2016 09:12 15,6 C 94 % 1010,4 hPa 0,0 l/m 4,9 km/h (1 Bft) NW 315 0 min 114 W/m 14,6 C 15,6 C 8,0 km/h (2 Bft)
18.08.2016 09:15 15,5 C 94 % 1010,5 hPa 0,0 l/m 7,1 km/h (2 Bft) N 5 0 min 114 W/m 14,5 C 15,1 C 16,1 km/h (3 Bft)
18.08.2016 09:18 15,4 C 94 % 1010,5 hPa 0,0 l/m 5,2 km/h (1 Bft) N 5 0 min 156 W/m 14,4 C 15,4 C 12,9 km/h (3 Bft)
18.08.2016 09:21 15,5 C 94 % 1010,5 hPa 0,0 l/m 4,8 km/h (1 Bft) N-NW 331 0 min 185 W/m 14,5 C 15,5 C 12,9 km/h (3 Bft)
18.08.2016 09:24 15,6 C 94 % 1010,5 hPa 0,0 l/m 4,2 km/h (1 Bft) N 11 0 min 185 W/m 14,6 C 15,6 C 8,0 km/h (2 Bft)
18.08.2016 09:27 15,6 C 93 % 1010,4 hPa 0,0 l/m 4,1 km/h (1 Bft) N-NO 26 0 min 172 W/m 14,5 C 15,6 C 8,0 km/h (2 Bft)
18.08.2016 09:30 15,6 C 93 % 1010,5 hPa 0,0 l/m 3,0 km/h (1 Bft) N-NW 335 0 min 107 W/m 14,5 C 15,6 C 6,4 km/h (2 Bft)
18.08.2016 09:33 15,6 C 93 % 1010,4 hPa 0,0 l/m 2,8 km/h (1 Bft) N-NO 24 0 min 72 W/m 14,5 C 15,6 C 8,0 km/h (2 Bft)
18.08.2016 09:36 15,4 C 92 % 1010,4 hPa 0,0 l/m 3,8 km/h (1 Bft) N 351 0 min 62 W/m 14,1 C 15,4 C 6,4 km/h (2 Bft)
18.08.2016 09:39 15,3 C 93 % 1010,4 hPa 0,0 l/m 4,1 km/h (1 Bft) N-NW 336 0 min 118 W/m 14,2 C 15,3 C 6,4 km/h (2 Bft)
18.08.2016 09:42 15,3 C 93 % 1010,4 hPa 0,0 l/m 2,2 km/h (1 Bft) N-NW 336 0 min 77 W/m 14,2 C 15,3 C 4,8 km/h (1 Bft)
18.08.2016 09:45 15,2 C 93 % 1010,4 hPa 0,0 l/m 2,0 km/h (1 Bft) N-NO 24 0 min 104 W/m 14,1 C 15,2 C 4,8 km/h (1 Bft)
18.08.2016 09:48 15,2 C 93 % 1010,4 hPa 0,0 l/m 2,8 km/h (1 Bft) N-NW 339 0 min 116 W/m 14,1 C 15,2 C 4,8 km/h (1 Bft)
18.08.2016 09:51 15,2 C 93 % 1010,4 hPa 0,0 l/m 2,3 km/h (1 Bft) W-NW 300 0 min 81 W/m 14,1 C 15,2 C 6,4 km/h (2 Bft)
18.08.2016 09:54 15,2 C 93 % 1010,4 hPa 0,0 l/m 4,0 km/h (1 Bft) NO 35 0 min 178 W/m 14,1 C 15,2 C 8,0 km/h (2 Bft)
18.08.2016 09:57 15,2 C 93 % 1010,4 hPa 0,0 l/m 4,0 km/h (1 Bft) N-NW 338 0 min 267 W/m 14,1 C 15,2 C 6,4 km/h (2 Bft)
18.08.2016 10:00 15,3 C 93 % 1010,5 hPa 0,0 l/m 4,5 km/h (1 Bft) N 355 0 min 93 W/m 14,2 C 15,3 C 9,7 km/h (2 Bft)
18.08.2016 10:03 15,4 C 93 % 1010,5 hPa 0,0 l/m 5,6 km/h (2 Bft) NW 304 0 min 65 W/m 14,3 C 15,4 C 12,9 km/h (3 Bft)
18.08.2016 10:06 15,4 C 93 % 1010,5 hPa 0,0 l/m 2,6 km/h (1 Bft) NO 51 0 min 77 W/m 14,3 C 15,4 C 6,4 km/h (2 Bft)
18.08.2016 10:09 15,5 C 92 % 1010,5 hPa 0,0 l/m 4,4 km/h (1 Bft) W-NW 301 0 min 91 W/m 14,2 C 15,5 C 11,3 km/h (2 Bft)
18.08.2016 10:12 15,6 C 92 % 1010,5 hPa 0,0 l/m 4,5 km/h (1 Bft) N-NO 25 0 min 76 W/m 14,3 C 15,6 C 9,7 km/h (2 Bft)
18.08.2016 10:15 15,7 C 92 % 1010,5 hPa 0,0 l/m 5,2 km/h (1 Bft) NW 315 0 min 125 W/m 14,4 C 15,7 C 9,7 km/h (2 Bft)
18.08.2016 10:18 15,8 C 92 % 1010,5 hPa 0,0 l/m 2,1 km/h (1 Bft) N-NW 343 0 min 128 W/m 14,5 C 15,8 C 4,8 km/h (1 Bft)
18.08.2016 10:21 15,9 C 92 % 1010,5 hPa 0,0 l/m 3,5 km/h (1 Bft) NW 317 0 min 179 W/m 14,6 C 15,9 C 6,4 km/h (2 Bft)
18.08.2016 10:24 16,1 C 91 % 1010,5 hPa 0,0 l/m 4,0 km/h (1 Bft) O-NO 75 0 min 137 W/m 14,6 C 16,1 C 8,0 km/h (2 Bft)
18.08.2016 10:27 16,2 C 91 % 1010,5 hPa 0,0 l/m 5,4 km/h (2 Bft) W-NW 294 0 min 116 W/m 14,7 C 16,2 C 14,5 km/h (3 Bft)
18.08.2016 10:30 16,2 C 90 % 1010,4 hPa 0,0 l/m 4,1 km/h (1 Bft) N-NW 336 0 min 258 W/m 14,6 C 16,2 C 9,7 km/h (2 Bft)
18.08.2016 10:33 16,3 C 90 % 1010,5 hPa 0,0 l/m 5,1 km/h (1 Bft) N 10 0 min 229 W/m 14,7 C 16,3 C 11,3 km/h (2 Bft)
18.08.2016 10:36 16,4 C 90 % 1010,5 hPa 0,0 l/m 5,3 km/h (1 Bft) N-NW 336 0 min 128 W/m 14,8 C 16,4 C 12,9 km/h (3 Bft)
18.08.2016 10:39 16,6 C 90 % 1010,5 hPa 0,0 l/m 2,9 km/h (1 Bft) N 5 0 min 141 W/m 15,0 C 16,6 C 8,0 km/h (2 Bft)
18.08.2016 10:42 16,5 C 89 % 1010,5 hPa 0,0 l/m 5,4 km/h (2 Bft) NW 316 0 min 167 W/m 14,7 C 16,5 C 9,7 km/h (2 Bft)
18.08.2016 10:45 16,4 C 89 % 1010,5 hPa 0,0 l/m 3,6 km/h (1 Bft) N-NO 19 0 min 84 W/m 14,6 C 16,4 C 9,7 km/h (2 Bft)
18.08.2016 10:48 16,4 C 89 % 1010,5 hPa 0,0 l/m 4,1 km/h (1 Bft) N-NO 22 0 min 77 W/m 14,6 C 16,4 C 8,0 km/h (2 Bft)
18.08.2016 10:51 16,4 C 89 % 1010,5 hPa 0,0 l/m 3,6 km/h (1 Bft) N-NW 334 0 min 100 W/m 14,6 C 16,4 C 6,4 km/h (2 Bft)
18.08.2016 10:54 16,3 C 88 % 1010,5 hPa 0,0 l/m 4,5 km/h (1 Bft) N 9 0 min 134 W/m 14,3 C 16,3 C 11,3 km/h (2 Bft)
18.08.2016 10:57 16,3 C 88 % 1010,5 hPa 0,0 l/m 6,5 km/h (2 Bft) N-NW 336 0 min 128 W/m 14,3 C 16,3 C 12,9 km/h (3 Bft)
18.08.2016 11:00 16,4 C 87 % 1010,5 hPa 0,0 l/m 6,1 km/h (2 Bft) N-NW 342 0 min 114 W/m 14,2 C 16,4 C 11,3 km/h (2 Bft)
18.08.2016 11:03 16,4 C 88 % 1010,5 hPa 0,0 l/m 4,0 km/h (1 Bft) N-NW 329 0 min 144 W/m 14,4 C 16,4 C 9,7 km/h (2 Bft)
18.08.2016 11:06 16,5 C 88 % 1010,5 hPa 0,0 l/m 4,6 km/h (1 Bft) N-NW 342 0 min 172 W/m 14,5 C 16,5 C 8,0 km/h (2 Bft)
18.08.2016 11:09 16,6 C 88 % 1010,5 hPa 0,0 l/m 4,0 km/h (1 Bft) N 9 0 min 193 W/m 14,6 C 16,6 C 9,7 km/h (2 Bft)
18.08.2016 11:12 16,6 C 87 % 1010,4 hPa 0,0 l/m 5,6 km/h (2 Bft) N-NW 333 0 min 202 W/m 14,4 C 16,6 C 12,9 km/h (3 Bft)
18.08.2016 11:15 16,7 C 88 % 1010,4 hPa 0,0 l/m 2,1 km/h (1 Bft) N-NW 333 0 min 223 W/m 14,7 C 16,7 C 4,8 km/h (1 Bft)
18.08.2016 11:18 16,7 C 86 % 1010,5 hPa 0,0 l/m 2,3 km/h (1 Bft) NW 307 0 min 258 W/m 14,3 C 16,7 C 6,4 km/h (2 Bft)
18.08.2016 11:21 17,0 C 88 % 1010,5 hPa 0,0 l/m 2,7 km/h (1 Bft) N-NW 333 0 min 271 W/m 15,0 C 17,0 C 6,4 km/h (2 Bft)
18.08.2016 11:24 17,0 C 86 % 1010,5 hPa 0,0 l/m 3,0 km/h (1 Bft) N 349 0 min 276 W/m 14,6 C 17,0 C 4,8 km/h (1 Bft)
18.08.2016 11:27 17,0 C 86 % 1010,5 hPa 0,0 l/m 4,4 km/h (1 Bft) N-NW 346 0 min 269 W/m 14,6 C 17,0 C 8,0 km/h (2 Bft)
18.08.2016 11:30 17,1 C 86 % 1010,4 hPa 0,0 l/m 4,4 km/h (1 Bft) N-NO 13 0 min 271 W/m 14,7 C 17,1 C 9,7 km/h (2 Bft)
18.08.2016 11:33 17,2 C 86 % 1010,4 hPa 0,0 l/m 3,2 km/h (1 Bft) N-NW 338 0 min 264 W/m 14,8 C 17,2 C 12,9 km/h (3 Bft)
18.08.2016 11:36 17,3 C 85 % 1010,4 hPa 0,0 l/m 3,8 km/h (1 Bft) O-NO 74 0 min 322 W/m 14,8 C 17,3 C 8,0 km/h (2 Bft)
18.08.2016 11:39 17,5 C 86 % 1010,4 hPa 0,0 l/m 4,3 km/h (1 Bft) N-NO 19 0 min 343 W/m 15,1 C 17,5 C 14,5 km/h (3 Bft)
18.08.2016 11:42 17,7 C 84 % 1010,4 hPa 0,0 l/m 5,0 km/h (1 Bft) N 5 0 min 327 W/m 15,0 C 17,7 C 9,7 km/h (2 Bft)
18.08.2016 11:45 17,8 C 83 % 1010,4 hPa 0,0 l/m 4,2 km/h (1 Bft) N-NW 331 0 min 297 W/m 14,9 C 17,8 C 8,0 km/h (2 Bft)
18.08.2016 11:48 17,6 C 83 % 1010,4 hPa 0,0 l/m 4,3 km/h (1 Bft) N-NW 344 0 min 315 W/m 14,7 C 17,6 C 8,0 km/h (2 Bft)
18.08.2016 11:51 17,6 C 84 % 1010,4 hPa 0,0 l/m 4,4 km/h (1 Bft) N-NW 346 0 min 338 W/m 14,9 C 17,6 C 8,0 km/h (2 Bft)
18.08.2016 11:54 18,0 C 87 % 1010,4 hPa 0,0 l/m 2,3 km/h (1 Bft) NW 312 0 min 316 W/m 15,8 C 18,0 C 4,8 km/h (1 Bft)
18.08.2016 11:57 18,0 C 85 % 1010,4 hPa 0,0 l/m 2,6 km/h (1 Bft) N-NW 336 0 min 362 W/m 15,4 C 18,0 C 6,4 km/h (2 Bft)
18.08.2016 12:00 17,9 C 85 % 1010,3 hPa 0,0 l/m 3,9 km/h (1 Bft) N-NO 33 0 min 387 W/m 15,3 C 17,9 C 6,4 km/h (2 Bft)
18.08.2016 12:03 17,9 C 84 % 1010,3 hPa 0,0 l/m 2,1 km/h (1 Bft) N-NW 330 3 min 404 W/m 15,2 C 17,9 C 4,8 km/h (1 Bft)
18.08.2016 12:06 18,1 C 87 % 1010,2 hPa 0,0 l/m 3,2 km/h (1 Bft) N-NO 24 0 min 381 W/m 15,9 C 18,1 C 6,4 km/h (2 Bft)
18.08.2016 12:09 18,2 C 85 % 1010,3 hPa 0,0 l/m 2,9 km/h (1 Bft) W 271 0 min 336 W/m 15,6 C 18,2 C 6,4 km/h (2 Bft)
18.08.2016 12:12 18,3 C 85 % 1010,3 hPa 0,0 l/m 3,2 km/h (1 Bft) NW 305 0 min 292 W/m 15,7 C 18,3 C 6,4 km/h (2 Bft)
18.08.2016 12:15 17,9 C 83 % 1010,4 hPa 0,0 l/m 4,1 km/h (1 Bft) N 360 0 min 329 W/m 15,0 C 17,9 C 8,0 km/h (2 Bft)
18.08.2016 12:18 17,9 C 87 % 1010,3 hPa 0,0 l/m 3,8 km/h (1 Bft) NO 46 3 min 471 W/m 15,7 C 17,9 C 8,0 km/h (2 Bft)
18.08.2016 12:21 18,1 C 85 % 1010,3 hPa 0,0 l/m 3,7 km/h (1 Bft) N-NW 342 0 min 364 W/m 15,5 C 18,1 C 6,4 km/h (2 Bft)
18.08.2016 12:24 18,1 C 85 % 1010,3 hPa 0,0 l/m 3,3 km/h (1 Bft) N-NW 347 3 min 461 W/m 15,5 C 18,1 C 6,4 km/h (2 Bft)
18.08.2016 12:27 18,2 C 84 % 1010,3 hPa 0,0 l/m 4,3 km/h (1 Bft) N 9 3 min 422 W/m 15,4 C 18,2 C 8,0 km/h (2 Bft)
18.08.2016 12:30 18,3 C 83 % 1010,2 hPa 0,0 l/m 3,8 km/h (1 Bft) NO 42 3 min 501 W/m 15,4 C 18,3 C 6,4 km/h (2 Bft)
18.08.2016 12:33 18,9 C 85 % 1010,2 hPa 0,0 l/m 4,5 km/h (1 Bft) NO 40 3 min 940 W/m 16,3 C 18,9 C 12,9 km/h (3 Bft)
18.08.2016 12:36 19,3 C 82 % 1010,2 hPa 0,0 l/m 3,5 km/h (1 Bft) NW 317 3 min 483 W/m 16,1 C 19,3 C 8,0 km/h (2 Bft)
18.08.2016 12:39 19,1 C 83 % 1010,3 hPa 0,0 l/m 5,6 km/h (2 Bft) O-SO 115 3 min 404 W/m 16,1 C 19,1 C 17,7 km/h (3 Bft)
18.08.2016 12:42 18,9 C 81 % 1010,3 hPa 0,0 l/m 4,5 km/h (1 Bft) N 355 0 min 334 W/m 15,6 C 18,9 C 12,9 km/h (3 Bft)
18.08.2016 12:45 18,9 C 84 % 1010,3 hPa 0,0 l/m 2,9 km/h (1 Bft) W-NW 291 0 min 343 W/m 16,1 C 18,9 C 6,4 km/h (2 Bft)
18.08.2016 12:48 18,9 C 82 % 1010,3 hPa 0,0 l/m 3,1 km/h (1 Bft) N 5 0 min 339 W/m 15,8 C 18,9 C 8,0 km/h (2 Bft)
18.08.2016 12:51 18,7 C 83 % 1010,3 hPa 0,0 l/m 3,0 km/h (1 Bft) N-NO 18 0 min 353 W/m 15,8 C 18,7 C 6,4 km/h (2 Bft)
18.08.2016 12:54 18,7 C 84 % 1010,2 hPa 0,0 l/m 3,2 km/h (1 Bft) NO 41 0 min 357 W/m 15,9 C 18,7 C 6,4 km/h (2 Bft)
18.08.2016 12:57 18,8 C 83 % 1010,2 hPa 0,0 l/m 4,0 km/h (1 Bft) NO 39 0 min 323 W/m 15,8 C 18,8 C 8,0 km/h (2 Bft)
18.08.2016 13:00 18,7 C 83 % 1010,2 hPa 0,0 l/m 2,6 km/h (1 Bft) N-NW 331 0 min 360 W/m 15,8 C 18,7 C 4,8 km/h (1 Bft)
18.08.2016 13:03 18,8 C 83 % 1010,2 hPa 0,0 l/m 3,5 km/h (1 Bft) N-NW 338 3 min 424 W/m 15,8 C 18,8 C 9,7 km/h (2 Bft)
18.08.2016 13:06 19,3 C 86 % 1010,2 hPa 0,0 l/m 3,3 km/h (1 Bft) W-NW 302 3 min 524 W/m 16,9 C 19,3 C 8,0 km/h (2 Bft)
18.08.2016 13:09 19,4 C 81 % 1010,2 hPa 0,0 l/m 3,6 km/h (1 Bft) N 5 0 min 369 W/m 16,1 C 19,4 C 8,0 km/h (2 Bft)
18.08.2016 13:12 19,3 C 81 % 1010,2 hPa 0,0 l/m 5,2 km/h (1 Bft) N 355 0 min 369 W/m 16,0 C 19,3 C 12,9 km/h (3 Bft)
18.08.2016 13:15 19,2 C 82 % 1010,2 hPa 0,0 l/m 4,7 km/h (1 Bft) N-NO 21 0 min 374 W/m 16,0 C 19,2 C 11,3 km/h (2 Bft)
18.08.2016 13:18 19,3 C 81 % 1010,3 hPa 0,0 l/m 3,5 km/h (1 Bft) N-NO 12 0 min 271 W/m 16,0 C 19,3 C 8,0 km/h (2 Bft)
18.08.2016 13:21 19,2 C 83 % 1010,2 hPa 0,0 l/m 3,9 km/h (1 Bft) NO 34 0 min 297 W/m 16,2 C 19,2 C 8,0 km/h (2 Bft)
18.08.2016 13:24 19,3 C 82 % 1010,2 hPa 0,0 l/m 5,1 km/h (1 Bft) N 11 3 min 508 W/m 16,1 C 19,3 C 9,7 km/h (2 Bft)
18.08.2016 13:27 19,4 C 80 % 1010,2 hPa 0,0 l/m 4,3 km/h (1 Bft) NO 45 3 min 508 W/m 15,9 C 19,4 C 8,0 km/h (2 Bft)
18.08.2016 13:30 20,1 C 82 % 1010,1 hPa 0,0 l/m 3,4 km/h (1 Bft) NO 46 3 min 534 W/m 16,9 C 20,1 C 11,3 km/h (2 Bft)
18.08.2016 13:33 19,9 C 82 % 1010,1 hPa 0,0 l/m 2,7 km/h (1 Bft) N 355 3 min 591 W/m 16,7 C 19,9 C 6,4 km/h (2 Bft)
18.08.2016 13:36 19,8 C 79 % 1010,2 hPa 0,0 l/m 3,8 km/h (1 Bft) N 10 0 min 341 W/m 16,0 C 19,8 C 8,0 km/h (2 Bft)
18.08.2016 13:39 19,7 C 81 % 1010,1 hPa 0,0 l/m 2,5 km/h (1 Bft) N-NO 12 3 min 621 W/m 16,3 C 19,7 C 4,8 km/h (1 Bft)
18.08.2016 13:42 20,0 C 81 % 1010,1 hPa 0,0 l/m 3,4 km/h (1 Bft) N 351 3 min 663 W/m 16,6 C 20,0 C 8,0 km/h (2 Bft)
18.08.2016 13:45 20,2 C 84 % 1010,1 hPa 0,0 l/m 2,2 km/h (1 Bft) O-NO 59 3 min 571 W/m 17,4 C 20,2 C 4,8 km/h (1 Bft)
18.08.2016 13:48 20,7 C 78 % 1010,1 hPa 0,0 l/m 2,5 km/h (1 Bft) O-SO 105 0 min 392 W/m 16,7 C 20,7 C 4,8 km/h (1 Bft)
18.08.2016 13:51 20,4 C 77 % 1010,1 hPa 0,0 l/m 3,7 km/h (1 Bft) N-NW 345 3 min 448 W/m 16,2 C 20,4 C 8,0 km/h (2 Bft)
18.08.2016 13:54 20,1 C 76 % 1010,1 hPa 0,0 l/m 1,6 km/h (1 Bft) N-NW 337 3 min 457 W/m 15,7 C 20,1 C 3,2 km/h (1 Bft)
18.08.2016 13:57 20,3 C 78 % 1010,1 hPa 0,0 l/m 2,6 km/h (1 Bft) N-NW 345 3 min 455 W/m 16,3 C 20,3 C 4,8 km/h (1 Bft)
18.08.2016 14:00 20,1 C 77 % 1010,2 hPa 0,0 l/m 2,7 km/h (1 Bft) NO 36 3 min 417 W/m 15,9 C 20,1 C 6,4 km/h (2 Bft)
18.08.2016 14:03 19,8 C 78 % 1010,2 hPa 0,0 l/m 5,4 km/h (2 Bft) N-NW 347 0 min 396 W/m 15,8 C 19,8 C 11,3 km/h (2 Bft)
18.08.2016 14:06 19,8 C 78 % 1010,2 hPa 0,0 l/m 5,5 km/h (2 Bft) N 5 3 min 406 W/m 15,8 C 19,8 C 12,9 km/h (3 Bft)
18.08.2016 14:09 19,7 C 77 % 1010,2 hPa 0,0 l/m 3,8 km/h (1 Bft) W-NW 301 3 min 461 W/m 15,5 C 19,7 C 8,0 km/h (2 Bft)
18.08.2016 14:12 19,7 C 78 % 1010,2 hPa 0,0 l/m 5,9 km/h (2 Bft) N-NW 330 3 min 443 W/m 15,8 C 19,7 C 12,9 km/h (3 Bft)
18.08.2016 14:15 19,7 C 78 % 1010,3 hPa 0,0 l/m 5,5 km/h (2 Bft) N 350 3 min 438 W/m 15,8 C 19,7 C 9,7 km/h (2 Bft)
18.08.2016 14:18 19,6 C 78 % 1010,3 hPa 0,0 l/m 5,0 km/h (1 Bft) N 9 0 min 350 W/m 15,7 C 19,6 C 9,7 km/h (2 Bft)
18.08.2016 14:21 19,3 C 79 % 1010,3 hPa 0,0 l/m 4,4 km/h (1 Bft) N-NW 340 0 min 306 W/m 15,6 C 19,3 C 8,0 km/h (2 Bft)
18.08.2016 14:24 19,5 C 82 % 1010,3 hPa 0,0 l/m 3,5 km/h (1 Bft) N 5 0 min 343 W/m 16,3 C 19,5 C 6,4 km/h (2 Bft)
18.08.2016 14:27 19,6 C 81 % 1010,3 hPa 0,0 l/m 1,6 km/h (1 Bft) NW 313 0 min 381 W/m 16,2 C 19,6 C 6,4 km/h (2 Bft)
18.08.2016 14:30 19,5 C 82 % 1010,3 hPa 0,0 l/m 3,9 km/h (1 Bft) NW 321 0 min 362 W/m 16,3 C 19,5 C 8,0 km/h (2 Bft)
18.08.2016 14:33 19,7 C 81 % 1010,3 hPa 0,0 l/m 3,4 km/h (1 Bft) N-NO 12 0 min 276 W/m 16,3 C 19,7 C 8,0 km/h (2 Bft)
18.08.2016 14:36 19,4 C 79 % 1010,3 hPa 0,0 l/m 3,5 km/h (1 Bft) N-NO 20 0 min 181 W/m 15,7 C 19,4 C 8,0 km/h (2 Bft)
18.08.2016 14:39 19,2 C 81 % 1010,3 hPa 0,0 l/m 2,9 km/h (1 Bft) N 350 0 min 192 W/m 15,9 C 19,2 C 8,0 km/h (2 Bft)
18.08.2016 14:42 19,0 C 81 % 1010,3 hPa 0,0 l/m 1,8 km/h (1 Bft) N 355 0 min 265 W/m 15,7 C 19,0 C 4,8 km/h (1 Bft)
18.08.2016 14:45 19,1 C 82 % 1010,3 hPa 0,0 l/m 2,7 km/h (1 Bft) NO 44 0 min 385 W/m 16,0 C 19,1 C 8,0 km/h (2 Bft)
18.08.2016 14:48 19,3 C 81 % 1010,2 hPa 0,0 l/m 2,5 km/h (1 Bft) N-NO 21 3 min 448 W/m 16,0 C 19,3 C 4,8 km/h (1 Bft)
18.08.2016 14:51 19,6 C 80 % 1010,2 hPa 0,0 l/m 5,6 km/h (2 Bft) N-NW 344 3 min 543 W/m 16,1 C 19,6 C 12,9 km/h (3 Bft)
18.08.2016 14:54 19,8 C 78 % 1010,1 hPa 0,0 l/m 4,2 km/h (1 Bft) W-SW 246 3 min 543 W/m 15,8 C 19,8 C 9,7 km/h (2 Bft)
18.08.2016 14:57 19,8 C 76 % 1010,2 hPa 0,0 l/m 3,6 km/h (1 Bft) N-NW 346 3 min 411 W/m 15,4 C 19,8 C 9,7 km/h (2 Bft)
18.08.2016 15:00 19,7 C 80 % 1010,1 hPa 0,0 l/m 5,5 km/h (2 Bft) W-NW 286 0 min 304 W/m 16,1 C 19,7 C 11,3 km/h (2 Bft)
18.08.2016 15:03 19,8 C 77 % 1010,1 hPa 0,0 l/m 4,4 km/h (1 Bft) N 5 3 min 795 W/m 15,6 C 19,8 C 9,7 km/h (2 Bft)
18.08.2016 15:06 20,6 C 74 % 1010,1 hPa 0,0 l/m 3,7 km/h (1 Bft) O 95 3 min 749 W/m 15,8 C 20,6 C 8,0 km/h (2 Bft)
18.08.2016 15:09 20,5 C 71 % 1010,1 hPa 0,0 l/m 4,2 km/h (1 Bft) NO 51 3 min 724 W/m 15,1 C 20,5 C 11,3 km/h (2 Bft)
18.08.2016 15:12 20,9 C 74 % 1010,1 hPa 0,0 l/m 2,6 km/h (1 Bft) N-NW 329 3 min 705 W/m 16,1 C 20,9 C 6,4 km/h (2 Bft)
18.08.2016 15:15 20,9 C 71 % 1010,1 hPa 0,0 l/m 4,0 km/h (1 Bft) N 10 3 min 671 W/m 15,4 C 20,9 C 9,7 km/h (2 Bft)
18.08.2016 15:18 20,8 C 70 % 1010,1 hPa 0,0 l/m 4,8 km/h (1 Bft) W-NW 299 3 min 705 W/m 15,1 C 20,8 C 9,7 km/h (2 Bft)
18.08.2016 15:21 20,7 C 72 % 1010,0 hPa 0,0 l/m 3,7 km/h (1 Bft) N-NW 330 3 min 679 W/m 15,5 C 20,7 C 6,4 km/h (2 Bft)
18.08.2016 15:24 20,8 C 71 % 1010,0 hPa 0,0 l/m 3,6 km/h (1 Bft) O 94 3 min 664 W/m 15,3 C 20,8 C 8,0 km/h (2 Bft)
18.08.2016 15:27 20,9 C 69 % 1010,0 hPa 0,0 l/m 5,5 km/h (2 Bft) N 11 3 min 668 W/m 15,0 C 20,9 C 12,9 km/h (3 Bft)
18.08.2016 15:30 20,8 C 72 % 1010,0 hPa 0,0 l/m 6,0 km/h (2 Bft) N-NW 329 3 min 682 W/m 15,6 C 20,8 C 11,3 km/h (2 Bft)
18.08.2016 15:33 20,6 C 72 % 1010,0 hPa 0,0 l/m 3,7 km/h (1 Bft) N-NO 15 3 min 712 W/m 15,4 C 20,6 C 11,3 km/h (2 Bft)
18.08.2016 15:36 20,5 C 70 % 1010,0 hPa 0,0 l/m 5,3 km/h (1 Bft) N 360 3 min 707 W/m 14,8 C 20,5 C 12,9 km/h (3 Bft)
18.08.2016 15:39 20,8 C 76 % 1010,0 hPa 0,0 l/m 3,4 km/h (1 Bft) W-NW 301 3 min 756 W/m 16,4 C 20,8 C 6,4 km/h (2 Bft)
18.08.2016 15:42 21,1 C 73 % 1010,0 hPa 0,0 l/m 4,7 km/h (1 Bft) N-NO 13 3 min 656 W/m 16,1 C 21,1 C 9,7 km/h (2 Bft)
18.08.2016 15:45 20,9 C 68 % 1010,0 hPa 0,0 l/m 4,0 km/h (1 Bft) W 279 3 min 468 W/m 14,8 C 20,9 C 9,7 km/h (2 Bft)
18.08.2016 15:48 20,4 C 70 % 1010,0 hPa 0,0 l/m 3,3 km/h (1 Bft) N-NW 327 3 min 436 W/m 14,7 C 20,4 C 8,0 km/h (2 Bft)
18.08.2016 15:51 21,1 C 77 % 1010,0 hPa 0,0 l/m 2,1 km/h (1 Bft) N 355 3 min 585 W/m 16,9 C 21,1 C 4,8 km/h (1 Bft)
18.08.2016 15:54 20,9 C 71 % 1010,0 hPa 0,0 l/m 3,6 km/h (1 Bft) N-NO 27 3 min 431 W/m 15,4 C 20,9 C 8,0 km/h (2 Bft)
18.08.2016 15:57 20,3 C 71 % 1009,9 hPa 0,0 l/m 2,9 km/h (1 Bft) N 5 3 min 431 W/m 14,9 C 20,3 C 6,4 km/h (2 Bft)
18.08.2016 16:00 20,1 C 75 % 1009,9 hPa 0,0 l/m 2,0 km/h (1 Bft) O-NO 65 3 min 547 W/m 15,5 C 20,1 C 4,8 km/h (1 Bft)
18.08.2016 16:03 20,2 C 75 % 1009,9 hPa 0,0 l/m 2,4 km/h (1 Bft) N-NO 20 3 min 659 W/m 15,6 C 20,2 C 4,8 km/h (1 Bft)
18.08.2016 16:06 20,7 C 76 % 1009,9 hPa 0,0 l/m 4,1 km/h (1 Bft) NW 315 3 min 642 W/m 16,3 C 20,7 C 8,0 km/h (2 Bft)
18.08.2016 16:09 20,3 C 72 % 1010,0 hPa 0,0 l/m 2,4 km/h (1 Bft) N 5 3 min 638 W/m 15,1 C 20,3 C 8,0 km/h (2 Bft)
18.08.2016 16:12 20,2 C 72 % 1009,9 hPa 0,0 l/m 2,4 km/h (1 Bft) N-NW 331 3 min 612 W/m 15,0 C 20,2 C 6,4 km/h (2 Bft)
18.08.2016 16:15 20,6 C 72 % 1009,9 hPa 0,0 l/m 3,8 km/h (1 Bft) N-NW 328 3 min 605 W/m 15,4 C 20,6 C 8,0 km/h (2 Bft)
18.08.2016 16:18 20,5 C 72 % 1009,9 hPa 0,0 l/m 5,1 km/h (1 Bft) N 350 3 min 605 W/m 15,3 C 20,5 C 9,7 km/h (2 Bft)
18.08.2016 16:21 20,8 C 75 % 1009,9 hPa 0,0 l/m 4,5 km/h (1 Bft) N-NO 17 3 min 587 W/m 16,2 C 20,8 C 8,0 km/h (2 Bft)
18.08.2016 16:24 20,9 C 73 % 1009,9 hPa 0,0 l/m 3,8 km/h (1 Bft) N 351 3 min 573 W/m 15,9 C 20,9 C 8,0 km/h (2 Bft)
18.08.2016 16:27 21,0 C 72 % 1009,9 hPa 0,0 l/m 2,7 km/h (1 Bft) N-NW 343 3 min 568 W/m 15,8 C 21,0 C 6,4 km/h (2 Bft)
18.08.2016 16:30 20,8 C 74 % 1009,9 hPa 0,0 l/m 4,0 km/h (1 Bft) N-NW 339 3 min 589 W/m 16,0 C 20,8 C 8,0 km/h (2 Bft)
18.08.2016 16:33 21,1 C 75 % 1009,9 hPa 0,0 l/m 4,3 km/h (1 Bft) N-NO 15 3 min 608 W/m 16,5 C 21,1 C 11,3 km/h (2 Bft)
18.08.2016 16:36 20,8 C 73 % 1009,8 hPa 0,0 l/m 3,1 km/h (1 Bft) N-NW 340 3 min 592 W/m 15,8 C 20,8 C 6,4 km/h (2 Bft)
18.08.2016 16:39 21,1 C 74 % 1009,8 hPa 0,0 l/m 2,6 km/h (1 Bft) W-NW 302 3 min 615 W/m 16,3 C 21,1 C 9,7 km/h (2 Bft)
18.08.2016 16:42 20,6 C 72 % 1009,8 hPa 0,0 l/m 5,3 km/h (1 Bft) N 5 3 min 696 W/m 15,4 C 20,6 C 11,3 km/h (2 Bft)
18.08.2016 16:45 20,4 C 75 % 1009,9 hPa 0,0 l/m 2,4 km/h (1 Bft) W-NW 302 0 min 232 W/m 15,8 C 20,4 C 4,8 km/h (1 Bft)
18.08.2016 16:48 20,1 C 76 % 1009,9 hPa 0,0 l/m 5,0 km/h (1 Bft) N 355 0 min 236 W/m 15,7 C 20,1 C 11,3 km/h (2 Bft)
18.08.2016 16:51 19,7 C 75 % 1009,8 hPa 0,0 l/m 6,4 km/h (2 Bft) W-NW 286 0 min 234 W/m 15,1 C 19,7 C 12,9 km/h (3 Bft)
18.08.2016 16:54 19,7 C 80 % 1009,8 hPa 0,0 l/m 4,8 km/h (1 Bft) N-NW 348 0 min 218 W/m 16,1 C 19,7 C 8,0 km/h (2 Bft)
18.08.2016 16:57 19,5 C 76 % 1009,9 hPa 0,0 l/m 4,5 km/h (1 Bft) NW 312 0 min 200 W/m 15,2 C 19,5 C 8,0 km/h (2 Bft)
18.08.2016 17:00 19,4 C 78 % 1010,0 hPa 0,0 l/m 2,9 km/h (1 Bft) NW 309 0 min 183 W/m 15,5 C 19,4 C 6,4 km/h (2 Bft)
18.08.2016 17:03 19,5 C 76 % 1009,9 hPa 0,0 l/m 4,0 km/h (1 Bft) NW 311 0 min 192 W/m 15,2 C 19,5 C 9,7 km/h (2 Bft)
18.08.2016 17:06 19,3 C 78 % 1009,9 hPa 0,0 l/m 3,3 km/h (1 Bft) N 351 0 min 229 W/m 15,4 C 19,3 C 6,4 km/h (2 Bft)
18.08.2016 17:09 19,3 C 75 % 1009,9 hPa 0,0 l/m 2,2 km/h (1 Bft) N 355 3 min 292 W/m 14,8 C 19,3 C 4,8 km/h (1 Bft)
18.08.2016 17:12 19,3 C 76 % 1009,9 hPa 0,0 l/m 5,4 km/h (2 Bft) NW 325 3 min 575 W/m 15,0 C 19,3 C 12,9 km/h (3 Bft)
18.08.2016 17:15 19,4 C 75 % 1009,9 hPa 0,0 l/m 7,5 km/h (2 Bft) N-NW 348 3 min 591 W/m 14,8 C 18,9 C 12,9 km/h (3 Bft)
18.08.2016 17:18 19,4 C 76 % 1009,9 hPa 0,0 l/m 4,0 km/h (1 Bft) N-NW 336 3 min 554 W/m 15,1 C 19,4 C 8,0 km/h (2 Bft)
18.08.2016 17:21 19,7 C 78 % 1009,8 hPa 0,0 l/m 3,6 km/h (1 Bft) NW 325 3 min 499 W/m 15,8 C 19,7 C 6,4 km/h (2 Bft)
18.08.2016 17:24 19,9 C 75 % 1009,8 hPa 0,0 l/m 5,3 km/h (1 Bft) NW 322 3 min 457 W/m 15,3 C 19,9 C 8,0 km/h (2 Bft)
18.08.2016 17:27 19,7 C 73 % 1009,7 hPa 0,0 l/m 5,0 km/h (1 Bft) N-NW 332 3 min 446 W/m 14,7 C 19,7 C 8,0 km/h (2 Bft)
18.08.2016 17:30 19,4 C 74 % 1009,7 hPa 0,0 l/m 6,3 km/h (2 Bft) NW 323 3 min 434 W/m 14,6 C 19,4 C 14,5 km/h (3 Bft)
18.08.2016 17:33 19,3 C 75 % 1009,8 hPa 0,0 l/m 5,8 km/h (2 Bft) N-NW 335 3 min 431 W/m 14,8 C 19,3 C 12,9 km/h (3 Bft)
18.08.2016 17:36 19,5 C 75 % 1009,7 hPa 0,0 l/m 5,5 km/h (2 Bft) NW 310 3 min 422 W/m 14,9 C 19,5 C 12,9 km/h (3 Bft)
18.08.2016 17:39 19,6 C 76 % 1009,7 hPa 0,0 l/m 5,9 km/h (2 Bft) W 260 3 min 413 W/m 15,2 C 19,6 C 12,9 km/h (3 Bft)
18.08.2016 17:42 19,6 C 74 % 1009,7 hPa 0,0 l/m 6,9 km/h (2 Bft) W-NW 302 3 min 408 W/m 14,8 C 19,4 C 14,5 km/h (3 Bft)
18.08.2016 17:45 19,5 C 75 % 1009,7 hPa 0,0 l/m 7,7 km/h (2 Bft) NW 314 3 min 355 W/m 14,9 C 18,9 C 16,1 km/h (3 Bft)
18.08.2016 17:48 19,5 C 76 % 1009,6 hPa 0,0 l/m 7,3 km/h (2 Bft) N-NW 348 3 min 397 W/m 15,2 C 19,1 C 16,1 km/h (3 Bft)
18.08.2016 17:51 19,5 C 77 % 1009,6 hPa 0,0 l/m 5,9 km/h (2 Bft) NO 46 3 min 387 W/m 15,4 C 19,5 C 12,9 km/h (3 Bft)
18.08.2016 17:54 19,5 C 77 % 1009,6 hPa 0,0 l/m 5,5 km/h (2 Bft) N 10 3 min 383 W/m 15,4 C 19,5 C 14,5 km/h (3 Bft)
18.08.2016 17:57 19,3 C 75 % 1009,5 hPa 0,0 l/m 6,7 km/h (2 Bft) NW 315 3 min 288 W/m 14,8 C 19,2 C 14,5 km/h (3 Bft)
18.08.2016 18:00 19,3 C 76 % 1009,5 hPa 0,0 l/m 8,0 km/h (2 Bft) N 5 3 min 367 W/m 15,0 C 18,6 C 16,1 km/h (3 Bft)
18.08.2016 18:03 19,2 C 73 % 1009,6 hPa 0,0 l/m 10,3 km/h (2 Bft) NW 317 3 min 232 W/m 14,2 C 17,7 C 17,7 km/h (3 Bft)
18.08.2016 18:06 19,2 C 74 % 1009,7 hPa 0,0 l/m 6,7 km/h (2 Bft) N-NW 333 0 min 83 W/m 14,4 C 19,1 C 14,5 km/h (3 Bft)
18.08.2016 18:09 19,2 C 75 % 1009,7 hPa 0,0 l/m 5,6 km/h (2 Bft) N 360 0 min 54 W/m 14,7 C 19,2 C 12,9 km/h (3 Bft)
18.08.2016 18:12 19,2 C 73 % 1009,7 hPa 0,0 l/m 9,6 km/h (2 Bft) N-NW 348 0 min 53 W/m 14,2 C 17,9 C 17,7 km/h (3 Bft)
18.08.2016 18:15 19,1 C 72 % 1009,8 hPa 0,0 l/m 10,3 km/h (2 Bft) NW 321 0 min 53 W/m 13,9 C 17,5 C 17,7 km/h (3 Bft)
18.08.2016 18:18 19,1 C 74 % 1009,7 hPa 0,0 l/m 6,7 km/h (2 Bft) N 9 0 min 53 W/m 14,4 C 19,0 C 14,5 km/h (3 Bft)
18.08.2016 18:21 19,1 C 74 % 1009,7 hPa 0,0 l/m 9,5 km/h (2 Bft) N-NW 327 0 min 51 W/m 14,4 C 17,8 C 17,7 km/h (3 Bft)
18.08.2016 18:24 19,1 C 75 % 1009,7 hPa 0,0 l/m 7,7 km/h (2 Bft) N-NW 335 0 min 51 W/m 14,6 C 18,5 C 14,5 km/h (3 Bft)
18.08.2016 18:27 19,1 C 76 % 1009,7 hPa 0,0 l/m 8,0 km/h (2 Bft) NW 317 0 min 49 W/m 14,8 C 18,4 C 16,1 km/h (3 Bft)
18.08.2016 18:30 19,1 C 75 % 1009,8 hPa 0,0 l/m 7,7 km/h (2 Bft) W-NW 293 0 min 49 W/m 14,6 C 18,5 C 14,5 km/h (3 Bft)
18.08.2016 18:33 19,1 C 75 % 1009,7 hPa 0,0 l/m 8,1 km/h (2 Bft) N-NW 344 0 min 49 W/m 14,6 C 18,4 C 16,1 km/h (3 Bft)
18.08.2016 18:36 19,0 C 75 % 1009,8 hPa 0,0 l/m 10,1 km/h (2 Bft) NW 308 0 min 47 W/m 14,5 C 17,5 C 19,3 km/h (3 Bft)
18.08.2016 18:39 19,0 C 75 % 1009,7 hPa 0,0 l/m 9,0 km/h (2 Bft) NW 315 0 min 47 W/m 14,5 C 17,9 C 16,1 km/h (3 Bft)
18.08.2016 18:42 19,0 C 76 % 1009,7 hPa 0,0 l/m 8,5 km/h (2 Bft) N 355 0 min 46 W/m 14,7 C 18,1 C 19,3 km/h (3 Bft)
18.08.2016 18:45 18,9 C 75 % 1009,6 hPa 0,0 l/m 9,5 km/h (2 Bft) N-NW 347 0 min 46 W/m 14,4 C 17,6 C 16,1 km/h (3 Bft)
18.08.2016 18:48 18,9 C 77 % 1009,7 hPa 0,0 l/m 5,0 km/h (1 Bft) N-NW 341 0 min 46 W/m 14,8 C 18,9 C 9,7 km/h (2 Bft)
18.08.2016 18:51 18,9 C 76 % 1009,7 hPa 0,0 l/m 9,5 km/h (2 Bft) N-NO 13 0 min 44 W/m 14,6 C 17,6 C 17,7 km/h (3 Bft)
18.08.2016 18:54 18,9 C 77 % 1009,7 hPa 0,0 l/m 7,7 km/h (2 Bft) NW 308 0 min 44 W/m 14,8 C 18,3 C 12,9 km/h (3 Bft)
18.08.2016 18:57 18,8 C 76 % 1009,7 hPa 0,0 l/m 8,1 km/h (2 Bft) N-NW 339 0 min 42 W/m 14,5 C 18,0 C 17,7 km/h (3 Bft)
18.08.2016 19:00 18,8 C 77 % 1009,7 hPa 0,0 l/m 8,3 km/h (2 Bft) N 350 0 min 42 W/m 14,7 C 18,0 C 16,1 km/h (3 Bft)
18.08.2016 19:03 18,8 C 77 % 1009,7 hPa 0,0 l/m 8,3 km/h (2 Bft) N 350 0 min 42 W/m 14,7 C 18,0 C 16,1 km/h (3 Bft)
18.08.2016 19:06 18,8 C 77 % 1009,8 hPa 0,0 l/m 9,5 km/h (2 Bft) NW 321 0 min 42 W/m 14,7 C 17,5 C 16,1 km/h (3 Bft)
18.08.2016 19:09 18,7 C 77 % 1009,7 hPa 0,0 l/m 7,7 km/h (2 Bft) NW 321 0 min 40 W/m 14,6 C 18,1 C 16,1 km/h (3 Bft)
18.08.2016 19:12 18,6 C 78 % 1009,7 hPa 0,0 l/m 4,9 km/h (1 Bft) N-NW 344 0 min 40 W/m 14,7 C 18,6 C 8,0 km/h (2 Bft)
18.08.2016 19:15 18,5 C 79 % 1009,7 hPa 0,0 l/m 7,7 km/h (2 Bft) N 355 0 min 39 W/m 14,8 C 17,9 C 16,1 km/h (3 Bft)
18.08.2016 19:18 18,4 C 79 % 1009,7 hPa 0,0 l/m 6,5 km/h (2 Bft) N 355 0 min 39 W/m 14,7 C 18,4 C 12,9 km/h (3 Bft)
18.08.2016 19:21 18,4 C 80 % 1009,7 hPa 0,0 l/m 5,8 km/h (2 Bft) N-NW 332 0 min 37 W/m 14,9 C 18,4 C 11,3 km/h (2 Bft)
18.08.2016 19:24 18,3 C 80 % 1009,7 hPa 0,0 l/m 6,1 km/h (2 Bft) N 351 0 min 37 W/m 14,8 C 18,3 C 14,5 km/h (3 Bft)
18.08.2016 19:27 18,2 C 80 % 1009,7 hPa 0,0 l/m 8,4 km/h (2 Bft) NW 315 0 min 37 W/m 14,7 C 17,3 C 17,7 km/h (3 Bft)
18.08.2016 19:30 18,2 C 80 % 1009,8 hPa 0,0 l/m 6,8 km/h (2 Bft) NW 320 0 min 35 W/m 14,7 C 18,0 C 12,9 km/h (3 Bft)
18.08.2016 19:33 18,2 C 80 % 1009,8 hPa 0,0 l/m 5,8 km/h (2 Bft) NW 322 0 min 33 W/m 14,7 C 18,2 C 9,7 km/h (2 Bft)
18.08.2016 19:36 18,2 C 81 % 1009,8 hPa 0,0 l/m 3,3 km/h (1 Bft) N-NW 348 0 min 33 W/m 14,9 C 18,2 C 6,4 km/h (2 Bft)
18.08.2016 19:39 18,1 C 81 % 1009,8 hPa 0,0 l/m 6,2 km/h (2 Bft) N 5 0 min 30 W/m 14,8 C 18,1 C 14,5 km/h (3 Bft)
18.08.2016 19:42 18,0 C 80 % 1009,8 hPa 0,0 l/m 8,5 km/h (2 Bft) N-NO 33 0 min 28 W/m 14,5 C 17,0 C 16,1 km/h (3 Bft)
18.08.2016 19:45 17,9 C 81 % 1009,8 hPa 0,0 l/m 3,9 km/h (1 Bft) N-NW 332 0 min 28 W/m 14,6 C 17,9 C 9,7 km/h (2 Bft)
18.08.2016 19:48 17,9 C 81 % 1009,8 hPa 0,0 l/m 7,1 km/h (2 Bft) NW 324 0 min 26 W/m 14,6 C 17,6 C 16,1 km/h (3 Bft)
18.08.2016 19:51 17,9 C 81 % 1009,8 hPa 0,0 l/m 7,6 km/h (2 Bft) N-NW 329 0 min 25 W/m 14,6 C 17,3 C 16,1 km/h (3 Bft)
18.08.2016 19:54 17,9 C 82 % 1009,8 hPa 0,0 l/m 6,1 km/h (2 Bft) NW 307 0 min 25 W/m 14,8 C 17,9 C 11,3 km/h (2 Bft)
18.08.2016 19:57 17,8 C 82 % 1009,8 hPa 0,0 l/m 4,9 km/h (1 Bft) N-NW 340 0 min 23 W/m 14,7 C 17,8 C 14,5 km/h (3 Bft)
18.08.2016 20:00 17,7 C 82 % 1009,8 hPa 0,0 l/m 6,0 km/h (2 Bft) N-NW 329 0 min 21 W/m 14,6 C 17,7 C 14,5 km/h (3 Bft)
18.08.2016 20:03 17,7 C 82 % 1009,8 hPa 0,0 l/m 8,2 km/h (2 Bft) N 360 0 min 21 W/m 14,6 C 16,8 C 19,3 km/h (3 Bft)
18.08.2016 20:06 17,7 C 82 % 1009,8 hPa 0,0 l/m 5,3 km/h (1 Bft) N 360 0 min 19 W/m 14,6 C 17,7 C 12,9 km/h (3 Bft)
18.08.2016 20:09 17,7 C 82 % 1009,9 hPa 0,0 l/m 6,8 km/h (2 Bft) N-NW 331 0 min 19 W/m 14,6 C 17,5 C 14,5 km/h (3 Bft)
18.08.2016 20:12 17,6 C 83 % 1009,9 hPa 0,0 l/m 5,8 km/h (2 Bft) NW 305 0 min 18 W/m 14,7 C 17,6 C 12,9 km/h (3 Bft)
18.08.2016 20:15 17,6 C 83 % 1009,9 hPa 0,0 l/m 5,9 km/h (2 Bft) N 5 0 min 16 W/m 14,7 C 17,6 C 9,7 km/h (2 Bft)
18.08.2016 20:18 17,6 C 83 % 1009,9 hPa 0,0 l/m 5,5 km/h (2 Bft) NW 312 0 min 14 W/m 14,7 C 17,6 C 12,9 km/h (3 Bft)
18.08.2016 20:21 17,5 C 83 % 1009,9 hPa 0,0 l/m 6,6 km/h (2 Bft) N-NW 341 0 min 12 W/m 14,6 C 17,4 C 12,9 km/h (3 Bft)
18.08.2016 20:24 17,4 C 83 % 1009,9 hPa 0,0 l/m 5,1 km/h (1 Bft) N 5 0 min 11 W/m 14,5 C 17,4 C 9,7 km/h (2 Bft)
18.08.2016 20:27 17,4 C 84 % 1009,9 hPa 0,0 l/m 3,2 km/h (1 Bft) N-NW 346 0 min 11 W/m 14,7 C 17,4 C 8,0 km/h (2 Bft)
18.08.2016 20:30 17,3 C 84 % 1010,0 hPa 0,0 l/m 4,4 km/h (1 Bft) N 351 0 min 9 W/m 14,6 C 17,3 C 8,0 km/h (2 Bft)
18.08.2016 20:33 17,2 C 85 % 1010,0 hPa 0,0 l/m 2,2 km/h (1 Bft) N-NW 335 0 min 7 W/m 14,7 C 17,2 C 8,0 km/h (2 Bft)
18.08.2016 20:36 17,1 C 85 % 1010,0 hPa 0,0 l/m 3,0 km/h (1 Bft) N-NW 336 0 min 7 W/m 14,6 C 17,1 C 4,8 km/h (1 Bft)
18.08.2016 20:39 17,1 C 86 % 1010,0 hPa 0,0 l/m 2,3 km/h (1 Bft) N-NW 346 0 min 5 W/m 14,7 C 17,1 C 4,8 km/h (1 Bft)
18.08.2016 20:42 16,9 C 86 % 1010,0 hPa 0,0 l/m 2,3 km/h (1 Bft) N-NW 348 0 min 5 W/m 14,5 C 16,9 C 4,8 km/h (1 Bft)
18.08.2016 20:45 16,9 C 87 % 1010,0 hPa 0,0 l/m 3,6 km/h (1 Bft) N-NW 346 0 min 0 W/m 14,7 C 16,9 C 6,4 km/h (2 Bft)
18.08.2016 20:48 16,8 C 87 % 1010,0 hPa 0,0 l/m 2,1 km/h (1 Bft) N 355 0 min 0 W/m 14,6 C 16,8 C 6,4 km/h (2 Bft)
18.08.2016 20:51 16,8 C 87 % 1010,1 hPa 0,0 l/m 3,2 km/h (1 Bft) W-NW 288 0 min 0 W/m 14,6 C 16,8 C 6,4 km/h (2 Bft)
18.08.2016 20:54 16,8 C 88 % 1010,0 hPa 0,0 l/m 2,9 km/h (1 Bft) N 360 0 min 0 W/m 14,8 C 16,8 C 6,4 km/h (2 Bft)
18.08.2016 20:57 16,7 C 88 % 1010,0 hPa 0,0 l/m 3,4 km/h (1 Bft) N 350 0 min 0 W/m 14,7 C 16,7 C 6,4 km/h (2 Bft)
18.08.2016 21:00 16,7 C 88 % 1010,0 hPa 0,0 l/m 3,6 km/h (1 Bft) N-NW 348 0 min 0 W/m 14,7 C 16,7 C 8,0 km/h (2 Bft)
18.08.2016 21:03 16,7 C 88 % 1010,1 hPa 0,0 l/m 3,0 km/h (1 Bft) N 5 0 min 0 W/m 14,7 C 16,7 C 4,8 km/h (1 Bft)
18.08.2016 21:06 16,6 C 88 % 1010,1 hPa 0,0 l/m 2,7 km/h (1 Bft) N 5 0 min 0 W/m 14,6 C 16,6 C 6,4 km/h (2 Bft)
18.08.2016 21:09 16,6 C 88 % 1010,1 hPa 0,0 l/m 2,8 km/h (1 Bft) N 5 0 min 0 W/m 14,6 C 16,6 C 6,4 km/h (2 Bft)
18.08.2016 21:12 16,6 C 88 % 1010,1 hPa 0,0 l/m 2,7 km/h (1 Bft) N 349 0 min 0 W/m 14,6 C 16,6 C 6,4 km/h (2 Bft)
18.08.2016 21:15 16,6 C 88 % 1010,2 hPa 0,0 l/m 1,8 km/h (1 Bft) N 349 0 min 0 W/m 14,6 C 16,6 C 4,8 km/h (1 Bft)
18.08.2016 21:18 16,5 C 88 % 1010,2 hPa 0,0 l/m 1,9 km/h (1 Bft) N 349 0 min 0 W/m 14,5 C 16,5 C 3,2 km/h (1 Bft)
18.08.2016 21:21 16,4 C 88 % 1010,2 hPa 0,0 l/m 1,8 km/h (1 Bft) N 349 0 min 0 W/m 14,4 C 16,4 C 4,8 km/h (1 Bft)
18.08.2016 21:24 16,4 C 88 % 1010,2 hPa 0,0 l/m 1,5 km/h (1 Bft) N-NW 330 0 min 0 W/m 14,4 C 16,4 C 3,2 km/h (1 Bft)
18.08.2016 21:27 16,3 C 88 % 1010,2 hPa 0,0 l/m 0,2 km/h (0 Bft) N-NW 330 0 min 0 W/m 14,3 C 16,3 C 1,6 km/h (1 Bft)
18.08.2016 21:30 16,2 C 88 % 1010,2 hPa 0,0 l/m 0,0 km/h (0 Bft) N-NW 330 0 min 0 W/m 14,2 C 16,2 C 0,0 km/h (0 Bft)
18.08.2016 21:33 16,1 C 89 % 1010,2 hPa 0,0 l/m 0,0 km/h (0 Bft) N-NW 330 0 min 0 W/m 14,3 C 16,1 C 0,0 km/h (0 Bft)
18.08.2016 21:36 15,9 C 88 % 1010,2 hPa 0,0 l/m 0,0 km/h (0 Bft) N-NW 330 0 min 0 W/m 13,9 C 15,9 C 0,0 km/h (0 Bft)
18.08.2016 21:39 15,8 C 89 % 1010,2 hPa 0,0 l/m 0,0 km/h (0 Bft) N-NW 330 0 min 0 W/m 14,0 C 15,8 C 0,0 km/h (0 Bft)
18.08.2016 21:42 15,7 C 89 % 1010,3 hPa 0,0 l/m 0,0 km/h (0 Bft) N-NW 330 0 min 0 W/m 13,9 C 15,7 C 0,0 km/h (0 Bft)
18.08.2016 21:45 15,6 C 89 % 1010,3 hPa 0,0 l/m 0,0 km/h (0 Bft) N-NW 330 0 min 0 W/m 13,8 C 15,6 C 0,0 km/h (0 Bft)
18.08.2016 21:48 15,6 C 90 % 1010,3 hPa 0,0 l/m 0,0 km/h (0 Bft) N-NW 330 0 min 0 W/m 14,0 C 15,6 C 0,0 km/h (0 Bft)
18.08.2016 21:51 15,5 C 90 % 1010,3 hPa 0,0 l/m 0,0 km/h (0 Bft) N-NW 330 0 min 0 W/m 13,9 C 15,5 C 0,0 km/h (0 Bft)
18.08.2016 21:54 15,5 C 90 % 1010,3 hPa 0,0 l/m 0,0 km/h (0 Bft) N-NW 330 0 min 0 W/m 13,9 C 15,5 C 0,0 km/h (0 Bft)
18.08.2016 21:57 15,5 C 90 % 1010,3 hPa 0,0 l/m 0,0 km/h (0 Bft) N-NW 330 0 min 0 W/m 13,9 C 15,5 C 0,0 km/h (0 Bft)
18.08.2016 22:00 15,4 C 90 % 1010,3 hPa 0,0 l/m 0,0 km/h (0 Bft) N-NW 330 0 min 0 W/m 13,8 C 15,4 C 0,0 km/h (0 Bft)
18.08.2016 22:03 15,3 C 90 % 1010,3 hPa 0,0 l/m 0,0 km/h (0 Bft) N-NW 330 0 min 0 W/m 13,7 C 15,3 C 0,0 km/h (0 Bft)
18.08.2016 22:06 15,2 C 89 % 1010,3 hPa 0,0 l/m 0,0 km/h (0 Bft) N-NW 330 0 min 0 W/m 13,4 C 15,2 C 0,0 km/h (0 Bft)
18.08.2016 22:09 15,0 C 89 % 1010,3 hPa 0,0 l/m 0,0 km/h (0 Bft) N-NW 330 0 min 0 W/m 13,2 C 15,0 C 0,0 km/h (0 Bft)
18.08.2016 22:12 14,9 C 90 % 1010,4 hPa 0,0 l/m 0,0 km/h (0 Bft) N-NW 330 0 min 0 W/m 13,3 C 14,9 C 0,0 km/h (0 Bft)
18.08.2016 22:15 14,8 C 90 % 1010,4 hPa 0,0 l/m 0,0 km/h (0 Bft) N-NW 330 0 min 0 W/m 13,2 C 14,8 C 0,0 km/h (0 Bft)
18.08.2016 22:18 14,7 C 90 % 1010,4 hPa 0,0 l/m 0,0 km/h (0 Bft) N-NW 330 0 min 0 W/m 13,1 C 14,7 C 0,0 km/h (0 Bft)
18.08.2016 22:21 14,7 C 91 % 1010,5 hPa 0,0 l/m 0,0 km/h (0 Bft) N-NW 330 0 min 0 W/m 13,2 C 14,7 C 0,0 km/h (0 Bft)
18.08.2016 22:24 14,6 C 91 % 1010,5 hPa 0,0 l/m 0,0 km/h (0 Bft) N-NW 330 0 min 0 W/m 13,1 C 14,6 C 0,0 km/h (0 Bft)
18.08.2016 22:27 14,6 C 90 % 1010,5 hPa 0,0 l/m 0,0 km/h (0 Bft) N-NW 330 0 min 0 W/m 13,0 C 14,6 C 0,0 km/h (0 Bft)
18.08.2016 22:30 14,6 C 90 % 1010,6 hPa 0,0 l/m 0,0 km/h (0 Bft) N-NW 330 0 min 0 W/m 13,0 C 14,6 C 0,0 km/h (0 Bft)
18.08.2016 22:33 14,6 C 90 % 1010,5 hPa 0,0 l/m 0,0 km/h (0 Bft) N-NW 330 0 min 0 W/m 13,0 C 14,6 C 0,0 km/h (0 Bft)
18.08.2016 22:36 14,6 C 90 % 1010,5 hPa 0,0 l/m 0,2 km/h (0 Bft) N-NW 330 0 min 0 W/m 13,0 C 14,6 C 1,6 km/h (1 Bft)
18.08.2016 22:39 14,6 C 91 % 1010,5 hPa 0,0 l/m 0,0 km/h (0 Bft) N-NW 330 0 min 0 W/m 13,1 C 14,6 C 0,0 km/h (0 Bft)
18.08.2016 22:42 14,6 C 91 % 1010,5 hPa 0,0 l/m 0,1 km/h (0 Bft) N-NW 330 0 min 0 W/m 13,1 C 14,6 C 1,6 km/h (1 Bft)
18.08.2016 22:45 14,6 C 90 % 1010,5 hPa 0,0 l/m 0,2 km/h (0 Bft) N-NW 330 0 min 0 W/m 13,0 C 14,6 C 1,6 km/h (1 Bft)
18.08.2016 22:48 14,6 C 91 % 1010,5 hPa 0,0 l/m 0,1 km/h (0 Bft) N-NW 330 0 min 0 W/m 13,1 C 14,6 C 1,6 km/h (1 Bft)
18.08.2016 22:51 14,6 C 91 % 1010,5 hPa 0,0 l/m 0,1 km/h (0 Bft) N-NW 330 0 min 0 W/m 13,1 C 14,6 C 1,6 km/h (1 Bft)
18.08.2016 22:54 14,6 C 90 % 1010,5 hPa 0,0 l/m 0,1 km/h (0 Bft) N-NW 330 0 min 0 W/m 13,0 C 14,6 C 1,6 km/h (1 Bft)
18.08.2016 22:57 14,6 C 91 % 1010,5 hPa 0,0 l/m 0,0 km/h (0 Bft) N-NW 330 0 min 0 W/m 13,1 C 14,6 C 0,0 km/h (0 Bft)
18.08.2016 23:00 14,6 C 91 % 1010,5 hPa 0,0 l/m 0,0 km/h (0 Bft) N-NW 330 0 min 0 W/m 13,1 C 14,6 C 0,0 km/h (0 Bft)
18.08.2016 23:03 14,6 C 90 % 1010,5 hPa 0,0 l/m 0,0 km/h (0 Bft) N-NW 330 0 min 0 W/m 13,0 C 14,6 C 0,0 km/h (0 Bft)
18.08.2016 23:06 14,6 C 90 % 1010,5 hPa 0,0 l/m 0,0 km/h (0 Bft) N-NW 330 0 min 0 W/m 13,0 C 14,6 C 0,0 km/h (0 Bft)
18.08.2016 23:09 14,4 C 90 % 1010,5 hPa 0,0 l/m 0,0 km/h (0 Bft) N-NW 330 0 min 0 W/m 12,8 C 14,4 C 0,0 km/h (0 Bft)
18.08.2016 23:12 14,2 C 89 % 1010,5 hPa 0,0 l/m 0,0 km/h (0 Bft) N-NW 330 0 min 0 W/m 12,4 C 14,2 C 0,0 km/h (0 Bft)
18.08.2016 23:15 14,1 C 89 % 1010,6 hPa 0,0 l/m 0,0 km/h (0 Bft) N-NW 330 0 min 0 W/m 12,3 C 14,1 C 0,0 km/h (0 Bft)
18.08.2016 23:18 13,9 C 90 % 1010,5 hPa 0,0 l/m 0,1 km/h (0 Bft) N-NW 330 0 min 0 W/m 12,3 C 13,9 C 1,6 km/h (1 Bft)
18.08.2016 23:21 13,8 C 90 % 1010,5 hPa 0,0 l/m 0,3 km/h (0 Bft) N-NW 330 0 min 0 W/m 12,2 C 13,8 C 1,6 km/h (1 Bft)
18.08.2016 23:24 13,7 C 90 % 1010,5 hPa 0,0 l/m 1,0 km/h (0 Bft) N-NW 330 0 min 0 W/m 12,1 C 13,7 C 3,2 km/h (1 Bft)
18.08.2016 23:27 13,5 C 90 % 1010,5 hPa 0,0 l/m 1,0 km/h (0 Bft) N-NW 330 0 min 0 W/m 11,9 C 13,5 C 1,6 km/h (1 Bft)
18.08.2016 23:30 13,4 C 91 % 1010,5 hPa 0,0 l/m 1,5 km/h (1 Bft) N-NW 330 0 min 0 W/m 12,0 C 13,4 C 1,6 km/h (1 Bft)
18.08.2016 23:33 13,3 C 92 % 1010,5 hPa 0,0 l/m 1,7 km/h (1 Bft) N-NW 330 0 min 0 W/m 12,0 C 13,3 C 3,2 km/h (1 Bft)
18.08.2016 23:36 13,2 C 92 % 1010,5 hPa 0,0 l/m 1,2 km/h (1 Bft) N-NW 330 0 min 0 W/m 11,9 C 13,2 C 3,2 km/h (1 Bft)
18.08.2016 23:39 13,2 C 92 % 1010,5 hPa 0,0 l/m 1,1 km/h (1 Bft) N-NW 330 0 min 0 W/m 11,9 C 13,2 C 3,2 km/h (1 Bft)
18.08.2016 23:42 13,2 C 93 % 1010,5 hPa 0,0 l/m 1,6 km/h (1 Bft) N-NW 330 0 min 0 W/m 12,1 C 13,2 C 3,2 km/h (1 Bft)
18.08.2016 23:45 13,2 C 93 % 1010,5 hPa 0,0 l/m 0,4 km/h (0 Bft) N-NW 330 0 min 0 W/m 12,1 C 13,2 C 1,6 km/h (1 Bft)
18.08.2016 23:48 13,2 C 93 % 1010,5 hPa 0,0 l/m 0,0 km/h (0 Bft) N-NW 330 0 min 0 W/m 12,1 C 13,2 C 1,6 km/h (1 Bft)
18.08.2016 23:51 13,2 C 93 % 1010,5 hPa 0,0 l/m 0,0 km/h (0 Bft) N-NW 330 0 min 0 W/m 12,1 C 13,2 C 0,0 km/h (0 Bft)
18.08.2016 23:54 13,2 C 93 % 1010,5 hPa 0,0 l/m 0,0 km/h (0 Bft) N-NW 330 0 min 0 W/m 12,1 C 13,2 C 0,0 km/h (0 Bft)
18.08.2016 23:57 13,3 C 94 % 1010,5 hPa 0,0 l/m 0,0 km/h (0 Bft) N-NW 330 0 min 0 W/m 12,4 C 13,3 C 0,0 km/h (0 Bft)
_ Min-Zeit 03:18 15:45 17:57 - 01:24 - - - - 03:18 03:18 01:33
Minimum _ 11,6 C 68 % 1009,5 hPa - 0,0 km/h (0 Bft) - - - - 10,7 C 11,6 C 0,0 km/h (0 Bft)
_ Max-Zeit 15:45 07:06 00:00 00:00 18:03 - - 12:03 12:33 13:45 15:42 18:36
Maximum _ 21,2 C 98 % 1012,8 hPa 0,0 l/m 10,3 km/h
NW (2 Bft)
- - 3 min 940 W/m 17,4 C 21,1 C 19,3 km/h
N-NW (3 Bft)
Durchschnitt _ 16,2 C 88 % 1010,6 hPa #0,0 l/m 3,2 km/h (1 Bft) N-NW - #4:06 h 247 W/m 14,1 C 16,2 C 7,0 km/h (2 Bft)
2016 Cux-Wetter.de -Die Nutzung der Wetterdaten nur mit ausdrcklicher Genehmigung